GFSNE_850_rhum_000.txt.gz
RH
98 97 97 100 100 100 100 100 98 94 91 86 91 87 80 75 78 78 75 71 72 73 76 84 88 89 86 88 69 63 54 37 15 12 19 78 93 92
96 97 97 99 100 100 100 100 100 99 97 94 92 89 85 81 84 84 81 77 77 80 84 89 97 95 90 90 67 60 39 13 10 12 24 90 95 93
92 94 93 96 99 100 100 99 100 100 100 97 98 98 94 90 88 90 87 89 88 88 90 92 97 90 92 82 62 46 17 9 10 15 20 87 96 93
74 88 89 87 90 95 98 100 99 99 100 100 99 98 97 97 95 96 94 95 95 93 95 97 89 90 94 70 53 24 11 8 14 18 21 48 96 94
82 84 78 84 92 91 92 98 100 100 99 99 99 100 99 99 99 100 99 100 100 99 99 96 93 93 90 58 31 14 8 12 16 23 25 28 93 96
77 73 68 66 74 89 99 99 95 98 100 97 100 100 100 98 100 100 90 100 100 100 100 95 98 95 64 42 20 8 11 17 20 24 30 92 96 93
81 80 75 68 70 75 93 97 98 100 96 100 99 100 100 100 91 97 96 100 99 100 100 100 95 76 48 24 12 10 18 20 21 29 89 96 94 92
82 78 77 74 65 70 85 81 97 98 100 97 100 98 100 93 81 99 100 100 100 99 100 99 86 53 24 16 13 17 21 26 24 28 59 96 93 95
87 87 81 94 95 86 76 81 87 93 94 99 99 100 100 97 78 94 99 100 93 99 96 88 50 26 18 18 17 23 33 36 27 26 21 87 96 97
78 90 95 97 98 100 93 76 92 94 92 95 91 99 97 100 92 96 94 100 100 100 88 52 34 24 22 18 21 26 42 57 32 18 17 22 64 96
96 100 100 95 83 94 100 97 78 96 97 90 95 87 96 98 98 100 99 100 100 97 63 42 21 25 23 21 24 18 22 23 22 20 22 50 72 86
33 30 57 72 83 91 100 100 88 88 99 99 99 98 99 100 100 100 96 99 99 77 67 44 30 33 24 21 18 16 18 19 24 26 51 66 88 84
25 30 49 73 80 86 91 95 94 91 99 100 100 91 98 100 100 100 100 100 91 84 51 36 37 21 23 20 16 19 18 22 23 22 24 32 45 80
19 29 74 92 83 84 89 91 99 100 99 100 100 100 100 100 100 99 100 98 88 60 38 36 21 20 26 19 17 17 18 19 20 22 30 43 54 69
20 37 88 99 99 95 97 100 100 100 100 100 100 100 100 100 99 100 99 73 47 73 48 22 18 28 23 18 17 14 13 14 23 36 43 54 60 65
35 67 100 100 100 99 98 98 100 100 100 100 100 100 100 100 100 88 75 97 93 86 39 20 28 26 19 17 15 11 16 26 31 36 48 59 64 69
91 100 100 98 94 98 98 100 100 100 100 100 100 100 100 100 97 94 98 97 96 52 23 28 28 23 19 15 12 19 31 34 37 53 62 67 68 70
98 99 100 100 100 99 99 99 100 100 100 99 99 99 99 98 99 99 98 98 48 25 28 27 24 19 14 12 24 30 38 47 56 63 69 76 72 69
100 100 100 100 99 99 99 99 99 99 99 99 98 98 98 97 98 98 98 58 28 30 30 29 22 17 16 15 22 37 46 57 69 77 82 83 82 79
100 100 100 100 99 98 98 98 98 98 98 98 98 97 97 97 97 98 80 30 29 31 27 21 18 19 17 21 34 45 56 74 90 96 88 90 87 77
100 100 100 100 98 98 98 98 98 98 98 98 97 98 98 97 98 80 32 30 33 26 20 18 18 14 23 38 48 65 71 89 96 96 95 96 91 83
100 100 100 100 98 98 97 97 97 97 97 97 98 99 98 98 89 35 29 32 25 19 20 15 14 30 41 58 74 81 84 82 90 96 97 100 99 100
100 99 100 100 98 97 97 97 97 97 97 97 97 97 98 97 42 31 34 24 19 20 13 14 34 40 60 80 89 94 98 91 85 85 95 97 96 95

GFSNE_850_rhum_003.txt.gz
RH
85 87 92 90 94 96 100 100 100 99 88 81 87 88 85 80 73 77 75 71 71 70 73 70 70 75 74 78 85 88 84 85 64 55 28 10 15 57
53 61 71 78 86 89 93 93 93 99 99 91 89 90 92 90 84 84 83 81 76 78 81 76 77 82 79 88 93 91 88 80 63 39 11 10 26 94
59 64 65 65 76 81 76 87 100 100 100 89 88 91 98 95 89 86 84 83 82 87 86 86 84 93 94 93 99 95 92 69 55 18 9 13 54 94
82 82 83 82 80 77 80 84 96 98 100 100 100 98 96 91 86 84 85 84 88 87 85 81 92 99 100 97 100 93 88 66 27 12 10 16 22 78
66 75 78 79 77 73 74 75 72 76 97 98 96 99 98 89 91 96 87 89 88 94 97 85 90 100 98 100 97 96 76 43 18 11 15 16 14 20
81 82 82 82 86 85 90 90 88 84 87 95 99 98 100 98 96 95 97 96 96 99 98 99 83 93 99 100 97 88 64 24 12 14 16 16 17 26
80 79 79 77 80 81 84 91 95 95 94 99 100 98 99 100 99 99 99 93 97 100 100 100 100 98 96 99 99 90 32 17 13 16 17 18 41 88
63 38 44 62 82 94 92 92 98 100 100 100 100 100 99 96 96 99 99 100 100 98 100 99 100 93 100 100 93 41 21 15 15 21 19 25 63 96
35 35 48 86 64 73 85 91 90 89 98 100 100 99 99 98 100 99 97 99 100 96 96 100 100 100 100 98 58 35 19 17 24 25 26 39 54 96
16 24 24 17 29 54 99 97 99 99 95 98 100 95 97 99 100 99 99 100 100 100 100 100 100 99 100 83 77 28 22 33 37 47 50 27 57 91
52 68 28 16 21 44 100 99 98 95 86 84 90 83 74 88 100 100 98 100 100 100 100 100 100 97 84 74 30 25 26 37 54 92 62 52 71 86
84 63 35 28 23 47 100 100 99 99 99 97 90 88 82 80 81 100 100 100 100 100 100 99 98 90 85 63 27 21 20 20 44 52 57 94 96 86
91 92 62 29 28 82 100 100 100 100 99 100 98 98 92 99 96 100 100 100 100 100 99 97 98 92 37 14 17 16 16 24 27 28 31 42 61 69
99 96 68 35 82 100 99 100 99 100 100 100 100 99 100 100 100 100 100 100 100 100 99 100 90 73 26 15 18 17 18 20 21 20 22 23 27 36
95 92 76 96 98 99 99 98 99 99 100 99 100 100 100 100 100 100 100 100 100 100 100 99 96 22 14 19 15 16 19 18 17 20 27 38 45 54
91 83 100 99 98 100 100 100 96 99 99 99 100 99 100 100 99 100 99 99 99 98 98 94 24 22 23 18 15 13 14 19 33 35 36 43 51 59
94 99 98 99 100 99 100 99 96 99 100 99 99 99 100 100 99 99 98 99 98 98 96 36 30 27 21 15 12 16 29 34 37 42 54 60 63 66
95 99 99 100 100 100 100 99 95 98 100 99 98 99 99 100 98 98 98 98 98 93 41 36 30 26 17 13 19 28 35 45 53 58 64 71 70 69
94 99 100 100 99 100 100 99 98 97 98 98 98 98 98 97 97 98 98 97 95 44 41 36 26 16 15 14 23 39 47 53 62 70 76 79 77 76
100 97 93 98 94 100 99 98 96 96 97 97 97 97 97 97 97 97 97 97 48 38 37 25 19 18 14 21 38 49 60 70 81 84 85 91 86 79
98 95 93 91 100 99 99 97 97 96 96 96 97 97 97 96 97 97 96 46 44 36 28 23 20 13 25 43 53 69 78 91 92 85 81 92 92 87
98 93 90 91 99 99 99 96 96 96 96 96 96 96 96 97 97 94 44 38 35 27 21 14 14 34 44 62 78 85 84 86 90 88 93 98 100 100
98 93 96 88 87 97 98 96 96 96 96 96 96 96 96 97 94 44 40 33 24 21 13 16 36 48 74 89 94 89 87 85 85 92 100 100 100 100

GFSNE_850_rhum_006.txt.gz
RH
52 56 59 64 66 65 70 83 96 97 94 94 96 93 84 77 57 65 74 62 51 71 69 74 78 74 74 77 78 76 88 93 85 82 84 84 68 50
56 70 68 71 75 79 83 84 90 100 99 96 93 92 97 92 80 86 82 79 73 69 73 76 78 78 77 76 82 82 85 84 91 89 87 88 64 38
81 73 68 68 71 75 78 79 80 89 99 88 95 88 88 88 95 96 94 92 84 84 76 74 82 82 82 80 86 84 87 90 95 91 91 88 58 20
63 65 77 83 85 82 80 82 86 86 94 100 96 99 92 87 94 92 83 84 86 89 87 78 80 87 90 88 92 92 96 100 99 99 95 76 37 33
73 84 84 80 76 66 71 85 86 85 88 100 100 100 100 96 92 91 95 98 100 88 74 83 84 87 95 89 100 95 97 94 99 100 92 57 18 74
70 68 60 50 39 43 82 88 90 98 100 100 100 99 99 99 99 99 99 98 89 96 95 95 80 80 99 100 95 100 100 100 100 99 81 51 17 40
54 44 38 29 26 75 44 43 67 98 93 100 100 100 100 94 98 99 98 98 89 94 90 98 99 98 95 99 98 84 100 100 100 98 79 26 17 32
48 40 27 19 37 27 14 28 42 96 98 100 100 100 100 100 100 98 99 100 100 96 78 82 93 100 100 100 99 86 98 99 100 84 98 35 81 96
48 39 21 29 85 48 21 22 28 72 98 99 99 100 100 100 100 98 99 99 98 99 99 99 100 100 100 100 99 99 100 100 91 73 46 91 97 96
39 23 21 90 80 53 47 55 44 89 100 99 99 100 100 100 100 100 100 100 98 100 100 100 99 100 100 100 100 100 100 97 93 76 97 98 97 96
60 54 81 93 93 97 94 88 93 97 98 99 100 99 100 100 100 100 99 100 99 99 100 95 100 100 100 100 100 100 100 100 98 97 100 99 98 91
86 89 95 97 98 95 99 97 100 100 98 97 96 86 98 99 100 100 100 100 100 100 99 100 100 100 100 100 99 99 98 98 96 97 98 97 99 94
97 95 88 78 92 92 100 100 100 99 99 100 99 99 99 100 100 100 100 100 100 99 100 100 100 100 99 98 98 98 86 86 97 98 96 98 97 95
96 91 91 90 86 100 100 99 98 98 99 97 100 99 98 98 99 99 100 100 100 100 100 100 99 99 99 96 96 87 56 46 48 56 59 61 66 95
96 100 93 97 97 100 99 100 98 98 99 100 100 99 97 99 99 99 99 99 100 100 100 100 99 100 100 97 25 27 37 36 33 28 26 28 27 27
95 88 92 95 96 100 95 94 99 98 98 98 99 95 97 99 98 98 98 98 99 98 98 99 98 96 42 21 16 18 22 16 20 20 21 24 29 37
88 88 83 84 88 89 85 97 100 100 100 100 97 97 98 97 97 97 98 98 98 97 97 97 76 30 27 21 16 15 15 16 28 32 37 38 40 45
91 90 92 93 100 98 100 100 99 100 97 97 97 97 97 97 97 97 97 97 97 97 97 49 33 29 21 16 13 15 26 36 40 42 46 53 56 61
82 94 95 97 98 100 100 100 99 97 97 97 97 96 96 96 97 97 96 97 97 93 46 41 30 17 11 14 18 25 37 48 54 55 59 63 69 74
95 90 95 98 100 100 100 98 94 96 96 96 96 96 96 96 96 96 96 97 94 52 46 37 22 16 13 20 41 44 52 58 63 71 78 86 84 84
97 92 96 100 100 100 91 96 96 97 97 96 96 96 96 96 96 96 96 94 50 48 38 24 19 15 25 44 55 70 80 83 84 88 93 98 93 89
82 86 90 97 100 90 98 96 95 96 96 96 96 96 96 96 96 97 87 53 53 37 24 18 15 37 48 67 84 91 89 90 87 84 85 86 98 96
77 92 92 99 98 90 98 96 96 96 96 96 96 96 96 96 98 74 57 47 31 19 12 26 43 63 82 91 89 89 92 90 91 100 100 100 100 100

GFSNE_850_rhum_009.txt.gz
RH
58 62 78 79 74 72 78 84 97 97 89 88 89 86 87 89 90 83 84 77 78 71 68 70 64 64 77 79 81 82 76 74 77 82 92 94 89 86
78 73 65 64 67 76 83 84 83 92 99 92 95 94 89 85 78 75 74 80 81 81 82 74 71 77 64 78 84 79 80 77 78 87 97 100 100 90
66 62 66 83 92 82 75 73 66 73 99 84 95 96 96 97 97 93 82 79 74 73 83 86 83 82 84 76 84 85 80 80 82 87 100 100 100 100
49 66 76 76 50 40 39 46 43 67 98 100 88 96 100 98 93 93 95 94 89 78 78 82 81 87 92 86 88 86 86 84 84 88 94 100 100 98
48 73 79 49 40 33 26 80 80 32 36 72 93 90 90 98 97 92 93 93 84 96 93 89 90 87 85 97 86 93 91 91 92 93 100 100 100 100
64 81 63 54 46 28 62 100 71 34 63 88 86 94 93 93 98 100 97 100 98 86 82 72 85 85 92 86 79 86 100 98 98 100 100 100 100 95
63 52 44 44 38 40 82 80 80 70 90 94 96 98 98 95 99 99 98 99 99 99 95 78 71 87 91 88 93 86 99 98 100 97 100 99 100 99
47 41 35 31 30 56 67 65 87 100 97 98 94 100 97 100 100 100 100 100 99 96 100 98 94 85 85 84 82 83 98 100 100 100 100 100 100 100
49 51 43 53 64 84 84 91 98 100 91 98 99 95 99 100 100 100 100 100 100 98 100 100 100 94 91 88 93 95 98 100 100 100 100 100 100 97
75 69 82 91 87 91 89 92 97 82 54 82 100 100 98 96 100 100 99 100 99 98 100 100 100 98 98 95 100 100 100 100 100 100 100 99 99 99
79 91 95 92 92 90 85 90 88 87 90 95 99 96 97 98 100 100 100 100 99 100 99 99 100 100 99 100 100 100 100 100 100 100 100 100 98 96
96 94 85 93 91 92 90 93 98 96 99 95 93 98 100 99 100 100 100 100 100 100 97 100 98 100 99 99 100 100 100 100 100 100 99 98 97 95
94 92 91 95 98 88 93 97 97 97 87 94 100 87 91 100 100 99 100 99 99 99 99 100 100 100 100 99 100 99 99 99 99 98 98 97 96 98
95 96 95 91 91 88 88 88 95 98 94 97 100 99 99 100 100 98 98 98 98 99 99 100 100 100 100 98 97 98 98 98 97 97 97 95 98 100
96 100 92 91 94 93 96 98 100 96 97 99 99 96 96 100 98 96 97 97 98 98 99 99 99 99 99 99 96 97 97 97 97 96 96 93 98 99
97 97 79 82 99 98 98 100 100 100 99 97 97 94 97 98 97 97 97 97 97 97 97 97 98 99 98 98 98 97 98 68 80 85 78 87 95 88
94 85 71 95 100 100 98 99 97 100 100 94 97 97 97 95 95 97 96 97 97 96 97 97 97 95 54 44 24 46 41 28 38 51 60 59 44 32
91 91 90 100 100 100 95 99 100 98 95 95 97 97 97 96 96 96 96 97 97 96 96 96 74 34 28 24 28 31 28 18 23 30 29 31 34 39
93 92 100 100 100 97 98 100 100 95 96 96 97 96 96 96 96 96 96 96 96 96 91 46 38 26 16 22 21 21 23 30 34 39 39 39 43 50
100 100 100 100 100 100 100 100 96 96 96 96 97 96 96 96 96 96 96 96 96 90 81 44 21 14 16 32 37 36 42 47 49 51 55 62 70 76
98 96 100 100 100 96 100 100 98 96 96 96 96 96 95 96 96 96 96 96 84 74 44 27 19 23 44 49 57 63 64 67 70 73 81 90 96 97
89 92 100 100 98 100 100 98 96 95 96 96 96 96 96 96 96 96 94 81 58 40 25 17 35 49 66 80 87 90 94 98 98 94 92 94 96 94
90 100 95 90 93 93 98 97 96 96 96 97 96 96 96 97 95 80 52 43 27 17 31 53 73 92 96 93 90 91 88 93 96 97 99 100 98 96

GFSNE_850_rhum_012.txt.gz
RH
71 84 68 56 61 80 100 93 87 97 89 68 84 82 84 79 78 79 82 82 81 81 84 78 84 97 100 96 97 93 82 87 92 86 78 73 89 90
43 32 29 43 75 91 58 46 36 76 90 64 68 83 78 72 67 82 81 77 71 76 85 86 85 84 82 94 96 81 77 88 89 90 85 74 78 91
19 26 47 78 93 77 52 52 32 53 99 75 59 34 27 41 74 84 85 85 86 78 75 81 81 88 88 85 89 98 97 89 87 94 88 88 77 80
32 55 71 76 67 60 54 49 43 96 100 94 60 41 29 22 26 51 86 81 78 88 87 76 87 88 94 92 90 88 90 94 100 100 100 93 86 79
71 71 63 57 51 48 46 43 82 100 98 87 61 49 39 31 54 58 45 56 82 93 96 98 97 83 78 76 81 80 83 96 97 92 92 100 99 83
66 56 48 48 50 62 69 78 97 96 96 100 99 99 89 66 81 78 69 72 79 83 97 97 87 88 83 71 78 79 85 99 85 84 83 95 100 99
49 41 40 42 64 84 92 90 91 96 97 98 98 100 98 98 99 97 96 85 98 99 98 85 78 74 82 96 86 69 80 84 92 87 86 88 96 100
60 59 60 70 85 94 92 90 88 84 81 90 98 99 98 100 99 98 100 100 99 98 98 96 98 96 80 68 68 64 73 72 81 95 96 98 99 100
74 75 75 93 95 90 89 89 90 89 87 86 94 98 99 88 99 96 100 100 100 98 96 95 100 100 98 99 90 76 81 81 81 91 98 91 100 100
82 80 99 89 81 92 96 97 96 74 76 100 100 98 98 98 99 96 100 100 99 98 99 100 100 98 99 99 96 82 78 92 98 91 100 100 100 100
79 90 100 92 92 96 96 96 90 87 79 87 100 100 99 98 100 100 98 99 99 100 85 98 99 100 97 98 94 87 88 94 100 100 100 100 100 100
93 91 90 92 90 93 89 96 98 84 87 95 91 84 86 99 100 99 97 98 99 99 93 100 100 100 99 98 98 99 98 100 100 100 100 100 100 100
93 88 83 97 98 87 86 96 94 89 95 91 87 90 92 97 96 96 96 98 98 99 97 100 99 100 100 99 100 100 100 100 100 100 100 100 100 99
88 80 92 98 93 87 93 97 96 97 94 93 96 98 99 100 98 96 96 97 97 97 96 95 97 100 100 99 99 100 100 100 100 99 99 99 98 98
82 96 97 98 85 80 97 98 98 97 98 97 100 100 99 96 97 93 91 94 97 98 96 94 98 99 99 98 98 98 98 99 99 98 98 99 98 97
95 97 95 76 67 94 92 86 88 100 100 97 98 100 92 97 100 94 97 97 97 96 97 96 96 98 98 98 98 97 98 96 98 98 98 98 98 100
92 90 78 83 95 99 98 100 91 99 98 97 100 97 94 99 96 96 97 97 97 96 96 96 97 97 97 97 97 97 98 97 98 97 98 98 100 100
80 87 96 100 100 100 100 100 96 99 100 100 96 96 98 98 96 96 96 96 96 96 96 96 96 95 95 96 97 97 98 84 98 99 99 98 99 100
76 96 96 100 100 100 100 100 100 100 97 96 96 96 97 97 96 96 96 96 96 96 96 95 76 55 25 44 87 51 29 39 88 93 93 89 67 42
91 99 100 100 100 100 100 100 97 97 96 96 96 96 97 97 96 96 96 96 96 96 68 29 20 17 22 26 35 38 33 29 38 40 37 39 41 43
97 98 100 100 100 100 98 98 99 96 97 96 96 97 96 96 96 96 96 97 94 66 32 26 29 43 46 38 37 48 52 55 54 52 55 60 63 67
100 100 100 100 96 93 97 97 96 95 96 96 96 97 96 96 96 96 94 87 57 32 20 33 50 64 76 80 74 73 72 74 78 79 90 96 89 85
100 100 100 88 83 88 97 96 96 96 96 96 96 96 97 92 93 83 52 27 23 33 57 74 95 95 92 93 94 96 96 96 97 97 97 96 94 100

GFSNE_850_rhum_015.txt.gz
RH
7 8 10 16 42 78 96 97 86 98 76 57 62 65 84 90 72 52 39 39 65 84 88 86 77 71 75 85 84 78 81 94 96 99 94 89 86 87
11 12 20 31 50 79 88 87 95 80 82 63 63 80 91 73 56 58 62 36 28 30 37 58 76 82 84 84 87 86 87 92 85 100 95 90 91 90
16 34 65 78 49 39 49 60 61 59 67 53 75 93 90 74 68 73 47 36 39 39 33 36 52 70 88 89 88 90 93 92 97 94 96 96 99 93
47 79 71 59 53 58 57 68 77 85 81 88 98 90 80 86 93 86 79 82 62 35 37 57 58 78 83 95 100 96 89 93 89 95 94 98 95 97
63 68 55 62 66 72 85 87 91 89 90 91 96 93 90 93 88 89 95 73 74 62 80 78 74 56 59 81 89 87 87 87 82 89 94 92 92 77
63 64 73 78 81 88 88 90 92 91 90 90 90 85 85 84 88 84 88 88 82 79 90 100 93 61 61 67 76 83 81 77 88 84 97 98 99 96
57 70 80 86 93 93 92 89 94 89 91 91 90 93 91 83 87 90 97 96 91 99 90 65 89 86 87 97 99 100 83 98 93 73 80 92 98 90
80 79 87 88 91 95 93 90 92 95 94 99 96 92 91 91 94 100 99 99 99 90 84 90 100 94 84 73 66 78 78 77 64 70 73 86 78 91
91 90 84 94 99 90 90 94 95 96 85 91 97 97 97 81 100 99 98 99 99 92 99 100 97 98 93 89 88 90 99 99 90 79 76 82 88 92
92 91 97 99 89 89 91 97 77 62 87 99 96 94 95 90 93 96 98 98 96 87 100 99 100 96 86 98 98 94 92 96 82 76 72 81 93 81
90 95 100 86 86 93 97 93 83 86 85 95 93 95 98 99 100 97 95 100 99 94 100 98 83 99 100 98 97 97 97 85 77 73 81 87 91 88
97 100 89 85 91 98 97 92 90 85 98 95 85 77 83 84 100 98 96 98 98 99 97 98 92 92 98 98 100 100 89 78 84 84 96 92 98 100
95 92 88 87 97 94 86 86 93 92 94 85 85 95 97 94 93 95 96 96 98 100 98 98 98 98 98 96 100 90 100 100 96 100 100 100 100 98
96 84 92 97 90 87 85 93 93 94 88 100 100 99 100 95 98 96 95 96 97 97 96 98 96 98 99 97 100 95 100 100 99 100 100 100 100 100
88 100 98 79 77 89 91 93 98 99 100 96 99 98 98 98 96 98 92 98 98 96 97 96 96 96 98 98 99 98 100 100 100 100 100 100 100 100
97 91 78 79 93 98 89 95 100 100 100 96 96 96 98 100 100 98 99 96 96 94 96 97 96 96 99 98 98 97 99 98 99 99 98 99 98 98
84 84 78 98 97 90 94 100 100 100 100 100 97 97 97 100 97 97 96 96 96 96 96 96 96 96 96 96 97 97 98 98 99 99 98 98 98 97
90 92 93 99 98 100 100 100 100 100 99 97 97 99 99 98 96 96 97 97 96 96 96 96 96 96 96 96 97 97 98 98 98 98 98 96 98 98
97 95 100 99 100 100 100 100 100 99 97 97 98 97 96 96 97 96 97 96 96 96 96 95 80 38 96 96 96 97 97 98 98 98 98 97 96 98
100 100 100 100 100 100 100 100 97 96 96 97 96 96 96 97 96 97 96 96 96 93 38 30 25 27 57 81 57 51 81 97 97 96 97 99 98 100
100 99 100 100 100 99 94 97 97 96 97 96 96 96 96 96 96 96 96 97 86 53 34 42 52 44 37 36 40 56 76 99 90 73 79 78 76 63
96 100 100 100 94 86 96 96 96 96 96 96 96 98 99 93 87 79 57 46 36 32 45 61 72 72 54 45 59 64 68 58 55 50 49 50 52 56
100 100 100 92 77 92 96 96 96 96 96 97 100 100 84 67 46 33 36 71 89 87 84 97 96 92 90 84 64 63 66 71 68 76 92 97 92 86

GFSNE_850_rhum_018.txt.gz
RH
38 46 48 52 60 62 68 70 78 72 73 55 54 40 37 43 41 74 82 72 67 72 61 51 36 36 35 50 82 80 79 73 79 83 74 76 77 98
43 49 53 56 64 58 56 52 58 59 60 57 58 52 56 60 70 74 70 67 72 82 83 50 65 86 36 33 41 76 73 88 86 84 86 82 72 70
48 52 56 64 59 54 54 55 57 60 67 71 69 66 63 65 67 64 66 68 72 72 76 93 84 41 36 56 42 62 84 83 89 90 85 88 89 82
52 55 57 56 60 59 58 61 67 68 73 92 75 73 69 68 71 72 69 69 68 70 73 78 85 85 65 34 56 70 51 77 95 96 94 92 95 95
57 60 63 65 64 64 68 71 71 77 81 80 83 82 79 77 73 73 78 72 66 70 78 77 80 82 85 82 63 60 65 62 77 90 91 91 88 96
65 69 69 69 70 74 76 73 86 88 80 84 92 90 86 76 76 75 73 71 81 83 83 90 91 93 94 73 76 74 95 100 90 86 90 90 94 89
71 69 70 76 85 85 88 92 96 83 88 95 96 82 72 72 78 79 90 80 77 79 87 91 93 98 89 83 69 82 82 85 92 100 96 94 86 78
70 70 69 72 73 84 88 84 85 96 93 98 93 82 81 84 86 82 83 94 95 66 92 92 85 86 77 83 73 80 84 87 96 88 95 99 92 71
71 69 69 68 82 91 79 80 88 91 96 93 90 83 92 88 92 98 99 100 96 84 94 94 74 95 81 83 74 80 84 92 96 99 98 94 79 67
72 72 71 80 91 86 80 91 98 89 79 79 82 92 94 96 98 99 97 92 82 86 95 97 93 85 80 82 97 99 89 82 97 97 96 98 78 74
73 75 88 88 80 81 94 96 95 87 73 82 91 93 90 93 98 96 95 100 97 95 96 96 94 96 98 93 66 65 75 80 90 94 91 85 79 77
80 90 85 84 82 97 97 83 96 82 90 94 91 89 98 99 100 96 96 98 99 98 96 96 97 86 97 87 98 99 97 98 90 78 78 79 75 75
92 93 82 86 94 85 80 85 92 88 92 91 90 96 96 95 92 95 95 96 96 98 88 97 98 90 98 98 91 90 87 80 99 97 88 86 80 92
92 91 90 97 82 80 82 88 85 88 88 93 95 96 98 95 91 92 96 96 97 98 94 97 97 98 98 97 99 85 94 97 100 99 99 100 100 100
91 94 97 81 82 83 89 87 90 90 94 95 100 98 93 92 94 92 94 92 96 93 96 96 97 96 97 99 99 95 97 98 99 100 100 100 100 100
96 97 82 80 82 88 86 86 90 97 97 96 97 94 93 94 96 94 96 95 97 93 96 96 96 96 99 98 98 96 97 98 99 100 99 100 100 100
97 83 81 82 88 90 91 91 92 98 96 96 97 95 94 96 94 96 97 97 96 96 96 97 96 96 96 97 96 96 96 98 99 99 99 98 99 99
89 85 88 95 96 95 95 92 92 98 96 96 95 96 96 96 97 95 96 96 96 96 95 95 96 96 96 96 96 97 97 98 98 99 98 96 98 99
88 92 98 98 97 96 95 95 98 96 96 96 96 97 96 96 96 96 96 97 97 96 94 94 54 95 96 97 97 96 97 98 98 98 97 95 97 98
93 98 98 97 95 96 96 96 96 96 97 97 96 96 96 96 97 97 97 96 93 66 50 71 49 90 95 96 95 97 97 97 97 96 97 97 96 97
96 96 96 96 96 97 97 97 97 96 97 96 96 99 100 100 89 66 50 64 53 41 59 75 60 64 78 91 96 96 97 98 97 94 97 96 97 98
95 95 96 97 100 96 96 97 96 96 95 98 100 100 100 94 75 45 66 93 94 80 78 94 82 54 56 62 92 96 95 95 97 97 93 85 89 91
97 97 97 100 96 96 96 96 96 97 98 100 100 89 93 79 77 90 96 96 96 96 96 96 95 56 64 66 66 65 60 53 50 48 46 48 48 39

GFSNE_850_rhum_024.txt.gz
RH
26 31 32 39 44 50 52 54 61 67 65 60 61 61 65 65 68 78 71 68 68 70 78 70 74 70 74 73 73 76 78 79 80 98 99 88 98 98
31 28 37 46 51 52 56 58 61 66 69 64 68 72 67 75 82 74 71 73 73 80 77 70 72 77 71 70 70 75 68 72 79 80 83 82 89 87
28 31 46 50 56 59 61 66 68 69 73 76 71 70 84 76 62 78 79 84 83 78 69 65 62 66 70 73 68 69 78 81 80 80 80 86 78 98
29 37 49 62 64 66 69 68 70 71 73 78 84 91 82 69 80 80 93 88 98 77 69 65 73 84 74 76 83 81 77 81 86 86 96 96 97 99
37 47 58 65 72 70 67 68 71 79 94 99 95 78 89 85 84 90 95 90 80 75 64 74 76 77 78 78 78 82 86 85 92 94 90 95 97 98
53 54 70 77 73 70 70 72 82 95 98 94 99 96 93 86 95 97 90 82 74 71 78 82 88 84 83 85 86 89 87 96 95 92 97 99 77 96
61 72 83 78 75 73 73 81 88 86 95 98 100 99 96 95 98 90 84 77 81 88 94 93 87 88 84 89 90 94 96 93 90 92 97 98 93 78
77 86 83 78 75 78 80 80 85 97 96 97 98 95 79 80 89 97 98 97 96 95 95 85 95 94 87 89 96 100 98 98 97 94 92 92 96 98
90 85 84 82 80 80 84 93 96 96 97 91 87 86 87 95 97 97 100 100 99 99 100 100 99 98 95 84 84 92 95 97 96 92 93 98 99 91
85 88 90 89 88 90 96 96 91 82 94 94 84 91 97 98 98 98 98 96 96 99 99 100 95 99 86 82 95 94 96 94 94 96 97 94 96 90
92 96 95 92 92 91 96 95 95 95 74 86 99 98 88 90 93 95 96 100 98 96 94 94 99 93 90 85 72 76 98 97 98 96 98 98 99 100
96 96 98 93 85 94 96 97 98 82 96 97 87 71 72 86 100 97 96 97 98 98 88 100 99 98 99 85 90 90 89 80 98 96 100 100 100 99
96 91 93 88 96 94 86 92 85 95 97 80 75 91 99 98 93 95 96 97 98 98 79 100 97 98 100 99 90 90 98 89 90 88 90 91 77 77
96 92 84 98 88 88 86 85 89 89 78 91 100 100 100 98 95 95 96 96 97 98 95 98 97 99 98 97 99 93 80 94 97 96 97 98 98 78
91 96 100 91 87 86 90 91 93 84 97 97 99 96 97 95 94 95 91 93 93 96 96 98 98 98 99 97 92 80 95 92 97 98 99 100 100 99
93 98 96 88 87 92 90 85 88 98 98 96 97 96 95 95 95 96 96 93 97 94 93 96 96 96 93 90 92 95 97 97 96 98 99 100 100 100
95 94 78 91 97 99 97 92 99 97 96 96 96 96 96 96 93 94 96 94 96 96 93 93 95 96 92 95 95 94 96 97 98 99 99 99 100 100
93 86 98 100 100 100 99 96 96 98 96 96 96 97 97 96 94 94 95 96 95 96 95 96 93 89 92 96 97 95 97 98 99 99 99 98 98 99
92 97 100 100 100 98 98 98 97 96 96 96 96 96 96 94 97 95 96 96 94 97 96 95 96 96 94 96 97 97 97 98 99 98 99 99 99 99
95 100 100 100 97 97 97 97 96 96 95 96 96 95 96 98 96 96 96 96 96 96 95 86 94 95 96 96 96 98 98 98 98 99 98 98 98 99
98 96 100 98 96 97 97 96 98 97 99 96 95 96 100 99 96 96 96 96 96 97 96 88 78 96 96 95 98 97 97 98 98 98 98 98 99 99
99 100 97 96 96 97 98 98 97 96 94 95 96 97 96 98 97 96 97 97 96 98 96 87 89 96 95 95 96 97 97 98 97 97 98 96 98 100
100 100 93 95 97 97 98 99 99 91 96 97 96 96 97 96 96 94 97 97 97 98 96 89 83 95 95 95 96 97 96 97 97 95 97 98 97 97

GFSNE_850_rhum_027.txt.gz
RH
20 23 24 20 20 32 49 52 62 74 68 66 70 68 73 74 71 77 76 69 70 74 75 76 76 82 80 73 68 69 80 76 77 75 82 78 72 72
20 26 28 24 23 32 61 65 64 71 79 71 71 72 70 77 84 80 72 77 73 75 78 79 78 95 76 75 72 68 74 76 77 73 72 62 73 88
29 35 35 30 36 51 59 72 73 74 75 71 72 71 73 71 75 74 93 84 84 86 87 87 84 79 79 74 68 92 83 73 73 78 92 96 97 96
42 45 45 38 53 68 76 75 75 73 78 83 79 83 82 73 88 87 94 93 91 92 91 84 81 75 74 70 77 80 77 78 76 73 71 69 76 94
60 60 56 59 70 81 82 82 80 86 96 98 94 85 87 96 89 98 91 82 88 78 73 75 71 73 79 83 90 90 81 84 88 82 87 80 84 96
61 64 63 67 88 89 83 84 95 91 88 87 91 97 89 99 93 85 74 76 87 92 84 84 88 90 90 84 84 88 89 89 86 81 80 89 98 97
67 72 71 84 88 84 84 86 88 93 97 98 100 96 97 84 83 84 89 92 98 98 96 96 98 92 89 90 88 94 96 99 100 98 95 91 91 95
75 78 79 87 88 85 86 87 90 97 95 98 98 98 89 90 94 92 98 98 94 90 94 100 98 96 90 89 98 97 98 98 91 96 93 100 100 99
78 81 87 89 92 93 87 92 91 97 98 96 96 98 100 93 94 97 97 100 99 98 100 100 99 100 97 91 93 98 96 92 99 100 98 98 98 91
82 90 95 95 93 94 96 98 96 92 90 96 94 96 97 97 97 98 98 100 100 95 98 100 99 100 90 84 96 98 97 98 97 99 100 97 98 98
80 89 100 94 91 89 94 97 95 89 71 88 100 98 92 92 95 96 96 100 97 98 73 100 95 95 99 92 68 68 92 100 98 98 97 98 100 100
85 83 94 89 85 97 97 97 96 76 96 97 86 70 68 82 100 98 96 98 100 98 66 98 97 97 98 85 78 85 93 80 96 100 99 100 99 100
89 92 84 92 98 88 89 89 90 96 96 81 77 87 95 98 94 94 96 97 97 97 80 99 98 97 100 100 91 89 98 92 92 95 97 97 99 100
97 86 90 98 89 89 91 94 93 96 84 94 100 100 99 92 93 95 95 96 96 98 96 96 97 98 97 98 100 87 78 93 98 95 97 98 98 92
91 100 100 93 92 89 97 100 99 90 94 98 100 98 96 95 94 94 92 95 93 92 95 96 96 96 97 98 100 89 95 88 97 97 97 98 99 96
94 95 85 88 94 92 85 88 95 97 97 96 97 94 94 95 95 97 96 93 95 88 91 96 96 97 95 96 96 88 95 97 95 98 98 99 99 99
94 87 80 96 91 88 91 94 97 99 97 97 96 95 95 96 95 95 95 95 100 96 92 92 96 96 93 88 90 96 96 97 99 98 98 99 100 100
96 95 100 99 100 100 100 97 93 96 96 96 95 97 97 97 96 95 96 96 96 95 96 96 94 90 89 94 96 96 98 98 98 98 98 99 99 100
97 98 100 100 100 100 99 98 97 94 96 95 97 96 97 97 100 97 96 96 95 96 96 95 96 96 94 96 97 99 98 98 98 98 98 98 99 99
100 100 99 98 98 98 97 98 95 93 93 96 96 96 97 99 97 97 96 96 97 96 89 93 94 96 96 96 96 98 98 98 98 98 98 99 98 99
94 93 94 98 97 97 97 98 97 96 98 97 96 97 99 98 96 98 97 96 97 96 85 95 97 97 96 95 97 97 97 98 98 98 98 99 99 100
92 95 91 97 97 97 99 99 95 95 95 95 97 97 97 97 97 97 97 97 98 97 91 94 97 96 95 94 97 98 97 98 97 97 97 98 100 99
95 93 93 96 97 100 100 97 98 97 97 97 98 97 98 96 97 97 96 97 97 95 93 86 96 96 95 96 96 97 97 97 97 94 98 98 97 98

GFSNE_850_rhum_030.txt.gz
RH
16 19 24 26 28 25 22 37 75 85 74 73 78 75 73 72 72 73 75 80 85 84 80 77 77 78 76 76 76 86 93 80 94 76 70 68 67 69
23 29 31 34 35 28 36 54 71 80 90 73 74 76 78 81 83 80 84 92 81 80 83 82 81 85 93 90 91 96 97 87 74 65 77 84 86 82
32 37 47 51 45 42 48 63 76 82 92 80 74 77 85 81 84 93 97 95 95 90 85 76 76 82 84 80 88 85 73 71 71 83 87 90 83 84
42 54 58 58 57 52 59 76 81 81 92 98 81 84 83 73 89 92 98 97 95 84 79 80 82 85 79 77 78 78 77 79 74 80 83 81 73 72
57 62 64 68 65 63 84 86 86 95 96 92 90 75 81 84 88 100 95 76 78 74 74 78 80 83 84 84 88 95 92 97 97 92 90 84 83 85
62 65 70 75 72 89 91 92 98 96 96 99 97 99 91 91 96 87 84 81 78 75 89 96 93 87 87 86 89 91 89 89 87 83 81 83 82 79
66 72 78 76 90 88 91 95 95 96 96 97 98 96 97 90 89 88 89 89 93 97 96 87 91 95 96 95 91 92 95 94 96 96 94 97 94 92
75 78 73 79 91 92 92 91 92 96 86 97 97 100 94 94 93 91 98 98 99 86 90 97 99 97 87 79 97 100 96 97 98 98 100 100 95 94
78 75 76 91 87 84 89 90 86 96 97 94 93 93 99 90 98 98 100 100 100 94 100 100 96 100 91 91 99 100 99 98 97 95 99 99 98 99
74 77 96 87 88 89 95 94 96 76 78 86 93 97 98 97 98 98 98 98 96 96 100 97 84 90 82 84 73 81 100 100 99 98 99 98 98 100
74 96 96 94 90 94 97 94 96 85 67 85 100 98 95 96 99 96 95 100 98 93 77 100 84 92 90 79 65 61 67 90 100 100 100 98 97 98
94 89 96 93 92 99 94 98 94 73 98 99 83 68 69 78 100 98 96 98 100 99 80 98 98 98 97 89 80 85 84 74 94 100 100 100 99 98
90 96 85 95 98 88 90 93 93 96 94 80 74 80 86 90 92 95 97 97 97 97 79 98 98 98 100 98 93 95 94 85 84 86 96 98 100 99
97 84 92 98 93 95 96 100 100 99 84 87 96 99 96 94 94 95 95 95 96 97 94 96 97 99 97 98 100 90 84 80 92 95 96 96 97 98
88 97 100 98 88 70 87 100 100 91 95 98 100 94 95 93 92 94 90 95 93 95 95 97 98 96 100 98 99 90 89 87 95 96 97 97 97 97
98 95 82 74 66 81 78 82 88 100 99 97 96 91 92 92 93 97 96 94 95 87 88 96 96 98 98 92 97 91 96 97 95 98 98 98 99 98
94 87 70 74 73 81 83 89 93 98 98 95 94 95 92 95 93 92 95 95 97 96 94 88 94 98 96 95 94 96 98 98 98 98 98 98 99 100
98 81 84 89 93 96 99 99 94 94 95 94 93 94 96 98 97 94 93 97 96 95 96 95 94 87 90 92 98 99 98 98 98 98 98 99 100 100
85 88 93 94 97 98 100 100 96 91 95 93 96 96 97 95 98 94 94 97 92 97 95 96 95 96 94 97 97 99 98 98 97 98 98 99 100 100
88 93 93 92 97 100 99 98 94 92 92 93 96 98 96 98 96 95 96 97 96 96 94 95 95 96 97 97 96 98 99 97 97 98 98 98 100 100
91 90 88 95 98 99 98 96 96 95 96 96 95 97 97 97 96 94 97 97 98 95 92 95 98 98 97 93 96 98 98 98 98 97 97 98 98 100
92 88 88 96 99 99 96 96 94 94 95 95 96 96 97 97 98 96 97 97 97 96 85 97 97 96 95 94 97 98 98 98 98 97 97 94 98 98
90 86 95 98 98 96 96 96 96 95 97 97 98 98 98 96 96 98 97 98 97 92 72 94 97 96 97 96 97 98 97 97 100 98 97 98 98 98

GFSNE_850_rhum_033.txt.gz
RH
16 21 26 31 38 39 40 43 62 88 74 71 73 72 79 80 82 82 80 79 83 82 82 82 79 79 84 87 87 94 90 92 93 90 86 98 93 85
18 24 30 41 45 45 50 49 55 74 98 61 71 77 84 90 87 85 76 91 82 84 82 84 91 84 81 83 77 78 78 97 98 98 99 98 92 82
18 33 41 51 54 62 63 59 72 81 96 76 66 70 68 72 74 82 89 95 91 97 97 91 78 77 79 85 90 92 86 89 88 94 98 92 87 88
30 44 51 59 68 72 71 78 81 81 99 96 82 70 69 64 74 97 100 96 95 84 73 76 76 76 79 83 93 92 92 91 89 88 83 82 85 91
45 52 63 72 75 76 83 84 92 99 100 100 98 94 90 95 92 99 89 83 77 77 79 82 84 87 86 92 92 93 95 95 96 96 97 100 99 99
50 62 69 74 73 89 90 94 98 96 90 97 100 100 100 97 88 83 80 81 78 85 91 93 96 91 91 90 89 89 91 93 89 87 89 93 91 87
64 61 60 64 83 90 91 88 92 95 98 100 98 98 97 83 83 85 95 96 97 97 94 95 97 95 93 94 94 95 97 97 96 94 94 96 97 94
50 52 60 67 79 91 93 93 93 93 97 97 91 90 86 90 87 100 100 98 97 93 96 84 96 97 81 85 88 100 100 97 97 99 100 99 98 99
59 65 70 84 82 84 88 94 97 96 95 96 91 90 97 93 98 96 100 100 100 99 100 94 88 90 75 74 86 99 100 100 98 97 98 100 97 96
69 76 93 85 89 94 95 98 81 79 75 83 96 96 98 97 98 100 99 99 99 98 100 97 85 83 79 77 69 68 95 100 100 99 98 98 98 97
81 97 97 95 94 96 96 96 95 78 70 90 100 99 91 95 100 96 94 100 100 98 94 100 87 98 98 78 69 78 80 100 98 96 97 99 99 100
99 93 96 95 93 99 96 97 96 77 97 97 78 71 70 76 95 97 96 98 100 98 85 98 98 100 96 89 83 82 90 84 100 100 100 100 98 97
84 88 81 94 97 92 93 95 93 96 94 83 77 78 85 84 82 88 96 97 96 98 82 98 98 96 100 100 94 93 96 91 93 91 82 95 100 100
96 87 91 98 95 96 91 100 100 100 83 89 91 94 86 85 84 87 89 94 96 97 95 97 97 100 97 99 100 80 86 92 96 94 96 96 97 98
95 96 98 97 79 58 72 100 100 89 100 97 96 89 90 88 86 90 87 89 88 88 95 96 99 97 98 96 98 89 97 90 94 97 98 97 96 96
97 94 82 69 61 70 76 78 86 99 100 99 97 90 91 88 88 94 95 92 93 80 83 96 97 97 95 94 97 95 97 97 95 98 99 98 98 98
98 87 69 67 66 80 82 86 90 94 98 95 95 94 92 93 90 92 96 95 97 97 90 90 94 96 97 97 96 97 98 97 98 99 98 98 98 99
95 77 75 75 86 92 94 94 91 93 95 96 93 96 98 98 94 92 94 98 98 96 96 96 94 84 76 81 97 97 100 98 98 97 97 99 99 100
78 79 80 83 93 96 98 100 96 93 97 95 97 96 98 95 95 94 96 95 95 98 96 96 98 100 100 97 95 100 98 98 97 96 97 100 100 100
79 84 82 89 95 99 99 99 94 92 94 92 97 98 97 99 95 95 98 97 97 96 94 94 95 96 98 97 96 97 98 98 98 97 97 99 100 100
83 83 83 94 98 99 98 96 96 96 97 97 96 97 97 98 94 94 98 95 100 97 94 96 98 98 97 89 93 97 98 98 98 98 97 98 100 100
86 83 87 96 98 99 96 95 93 94 96 96 96 96 96 97 97 96 99 98 98 99 89 97 98 96 94 96 97 97 97 97 98 98 98 98 100 98
86 83 94 98 98 96 97 94 95 96 98 97 96 96 97 96 96 97 98 98 98 96 76 90 97 97 96 96 97 97 96 95 96 97 99 99 97 98

GFSNE_850_rhum_036.txt.gz
RH
15 16 19 26 36 41 48 56 71 78 67 66 65 62 63 79 83 87 80 70 88 85 82 80 80 81 85 81 86 96 95 94 97 94 93 93 94 87
14 18 22 30 41 47 58 68 75 74 93 62 66 70 76 85 71 86 75 90 88 93 91 87 88 84 91 92 82 81 81 91 91 92 88 90 98 99
16 22 26 36 43 56 70 78 77 85 90 64 73 64 69 73 65 77 96 100 92 98 96 94 87 86 86 82 83 89 88 93 93 94 95 95 98 98
21 27 32 43 56 66 72 74 85 84 100 94 83 81 75 59 83 100 96 75 66 77 88 87 83 82 84 84 90 92 90 85 92 90 93 93 90 94
29 35 42 53 57 58 81 88 92 98 98 99 96 91 78 100 97 79 74 74 74 78 85 86 92 91 91 94 98 98 97 97 93 92 94 95 97 96
27 35 42 51 58 86 96 96 98 87 86 95 100 97 97 82 82 77 82 82 87 96 89 97 99 95 93 93 93 91 91 92 91 90 89 95 94 96
35 44 58 63 72 96 96 94 94 93 96 98 97 98 95 87 83 83 99 95 97 100 91 82 86 88 77 74 78 91 98 100 98 96 95 96 97 95
52 61 64 71 76 92 94 97 95 97 97 94 95 100 89 91 86 100 99 100 97 96 99 92 94 93 88 82 84 100 100 100 96 98 100 100 98 98
64 68 74 82 76 81 84 100 98 96 92 94 92 90 99 92 99 97 98 100 100 98 100 96 86 88 84 80 87 100 100 100 100 99 98 99 98 96
68 77 89 82 87 95 96 98 86 78 74 81 96 96 97 97 99 100 98 98 98 90 99 98 87 86 83 81 72 84 98 100 100 99 99 98 98 98
78 94 94 94 94 98 97 97 93 77 70 91 100 100 89 86 99 96 91 100 100 92 74 100 85 99 92 77 72 78 99 100 98 99 99 100 100 100
95 88 88 99 96 100 95 97 94 75 97 99 82 73 70 72 80 94 100 97 100 98 72 98 97 98 95 88 82 77 77 83 98 100 100 100 100 97
90 89 90 97 97 95 96 94 92 96 94 86 74 74 78 81 82 86 94 97 96 95 79 99 96 97 100 97 81 74 89 92 94 94 98 99 99 100
95 92 93 98 98 98 88 98 100 100 83 81 84 87 87 84 84 85 88 92 96 97 95 98 97 98 97 95 100 79 88 91 96 92 96 96 97 97
95 99 100 97 69 59 68 98 92 84 91 92 95 89 90 88 84 87 85 90 87 86 95 97 98 97 98 96 97 89 97 91 85 97 97 97 98 97
98 94 75 67 62 68 75 76 82 89 100 100 99 91 92 88 87 91 94 94 93 78 82 95 97 98 96 97 97 95 97 98 97 97 98 98 98 98
99 77 67 64 63 79 79 82 87 91 98 97 96 94 92 91 89 91 95 95 97 94 84 80 86 89 92 96 95 95 98 98 100 98 97 98 99 100
85 72 70 70 80 88 90 89 88 92 96 97 93 95 96 96 98 93 93 98 98 92 96 94 92 88 75 79 98 97 100 99 99 97 98 100 99 100
70 74 77 76 88 91 94 96 95 92 97 96 96 96 96 98 98 97 96 97 92 96 96 94 98 100 99 96 83 98 99 100 100 97 100 100 100 100
75 81 78 81 92 94 96 99 95 92 95 93 95 97 97 98 98 98 97 98 97 97 89 88 97 99 98 97 96 97 97 99 99 98 98 100 100 99
79 79 76 87 94 97 97 97 97 96 96 97 96 96 97 98 97 97 98 96 99 97 94 91 100 99 97 86 90 95 96 97 98 98 99 98 99 100
81 76 79 94 97 98 97 97 95 96 96 96 96 97 98 99 98 97 98 98 97 99 93 92 94 90 90 95 98 97 96 94 96 98 97 100 100 98
80 76 92 96 97 98 97 97 96 96 98 99 98 96 97 96 97 98 99 98 99 97 90 86 85 85 86 96 96 96 96 96 94 96 99 98 98 99

GFSNE_850_rhum_039.txt.gz
RH
14 14 16 20 24 30 39 48 73 71 63 59 65 70 84 91 88 88 91 91 92 93 92 90 88 88 92 93 94 93 94 96 97 99 96 96 96 99
15 16 19 23 26 30 41 51 61 83 88 63 68 85 90 89 89 94 92 97 94 95 94 90 88 86 87 93 91 87 89 88 89 92 87 90 87 84
16 18 20 26 29 34 40 46 55 75 90 60 87 84 91 88 90 96 100 100 94 88 89 91 93 91 89 91 93 94 93 94 92 91 91 94 98 98
16 18 22 28 28 33 38 47 66 89 95 93 90 91 80 93 98 100 94 85 89 87 91 93 94 92 91 92 91 93 93 95 92 93 95 93 91 96
19 25 30 35 38 43 57 86 93 100 100 99 92 68 99 100 98 85 82 82 88 91 89 96 96 100 100 99 96 93 94 95 95 93 91 94 96 95
21 31 36 45 54 67 98 100 100 97 92 98 93 97 98 84 80 88 89 88 94 95 82 99 98 98 99 99 100 99 99 99 95 92 93 95 98 96
27 33 42 54 68 97 97 96 94 96 91 96 97 94 88 90 90 92 99 98 96 97 84 93 94 85 83 85 95 99 100 100 100 99 98 95 96 94
34 36 53 70 76 99 97 100 97 94 97 100 93 98 88 92 91 100 100 100 98 96 98 94 88 83 83 79 86 100 100 100 100 99 98 99 99 97
33 56 76 81 80 87 88 100 98 98 96 97 93 93 98 91 99 97 96 99 100 97 100 100 80 90 79 75 74 98 100 100 100 100 100 100 100 98
54 73 83 83 92 97 95 95 94 81 97 97 98 97 97 97 98 100 96 96 94 81 100 100 86 94 86 76 62 64 76 100 100 100 100 99 99 98
73 83 89 97 99 92 95 95 98 97 71 91 99 100 87 83 93 98 98 100 100 86 74 100 99 97 83 64 64 68 85 100 99 99 100 100 100 99
95 98 96 100 96 99 96 96 98 82 96 100 86 73 73 73 78 98 100 96 100 99 76 99 94 100 97 82 76 73 73 78 93 98 100 99 99 99
95 94 98 98 99 96 96 98 94 97 99 83 77 75 77 83 84 86 93 97 96 97 82 99 94 90 100 98 81 75 82 89 96 92 96 97 97 97
97 98 94 100 97 98 85 84 100 100 86 84 84 83 88 85 84 85 86 88 92 95 92 98 96 98 97 95 100 81 88 90 94 94 92 95 96 97
96 97 100 96 64 58 64 82 82 84 90 96 99 91 90 88 85 86 84 86 79 79 95 96 98 96 100 98 98 92 96 94 92 97 96 97 96 97
94 95 73 63 61 60 74 78 84 90 100 100 99 95 93 92 88 91 91 89 87 72 79 95 96 98 96 98 99 92 93 99 97 99 99 98 98 98
100 78 63 62 59 76 80 83 86 91 94 95 96 95 92 92 85 88 94 94 95 89 79 79 91 90 78 82 92 92 98 97 99 98 98 98 99 100
88 67 66 68 74 88 90 89 88 91 94 96 94 96 96 94 93 91 95 97 95 87 88 87 94 88 73 75 89 97 98 98 97 98 100 100 100 95
64 65 70 73 84 92 95 95 94 95 97 96 96 94 96 96 96 94 95 97 93 91 93 88 96 100 100 99 82 95 98 97 98 96 99 100 100 100
64 70 72 77 92 95 95 98 96 95 96 94 95 97 97 97 95 95 96 98 95 96 91 79 94 99 100 98 96 93 98 96 98 98 98 99 100 100
67 71 73 91 96 99 100 98 98 96 96 96 95 96 97 98 94 96 97 96 100 97 96 84 88 92 89 85 95 96 91 96 98 99 100 94 98 99
72 72 85 94 98 98 96 96 96 95 96 96 96 96 96 97 96 96 97 98 98 98 99 88 82 85 85 89 90 94 95 92 94 97 100 99 99 98
74 78 93 95 98 98 99 98 96 96 97 97 96 96 97 97 98 98 98 98 98 98 96 92 84 86 83 77 86 93 94 91 96 93 97 97 98 98

GFSNE_850_rhum_042.txt.gz
RH
16 15 17 20 22 35 50 60 60 56 47 43 42 47 55 66 71 75 76 78 84 90 93 93 90 90 87 89 90 86 92 93 94 97 94 94 98 98
17 18 18 22 25 45 63 66 66 63 62 50 50 58 66 72 73 74 73 83 86 88 89 88 89 91 93 95 94 94 90 93 94 95 92 95 94 94
18 18 18 23 36 53 60 63 66 65 65 62 67 71 77 74 69 77 82 83 76 71 78 88 93 95 96 95 97 96 96 96 98 97 96 93 97 95
18 18 24 38 30 50 63 66 69 76 78 81 80 84 76 76 84 88 79 67 70 75 83 90 94 95 97 99 99 98 96 98 99 98 97 98 97 94
20 21 22 30 51 64 72 79 82 81 88 93 89 79 81 88 87 80 77 74 74 78 82 87 92 96 100 100 98 98 98 95 97 97 98 95 92 94
20 20 31 48 71 76 82 81 80 85 80 83 88 85 98 89 80 75 72 76 84 84 86 94 92 93 95 94 95 97 99 100 100 100 98 97 96 94
29 39 59 62 48 84 95 91 89 89 90 87 98 99 88 80 70 76 87 89 90 93 87 84 84 84 86 90 94 97 98 100 100 100 99 100 99 98
50 60 70 80 86 95 95 95 97 100 96 100 100 93 76 72 82 89 95 99 99 89 89 86 93 90 87 82 91 97 100 100 100 100 100 99 98 99
62 71 76 80 91 90 92 94 96 96 100 94 93 77 80 85 90 93 98 95 100 91 99 93 90 93 82 78 92 99 95 96 100 100 100 100 100 100
77 82 87 88 87 90 91 94 95 92 84 86 85 90 95 94 98 97 96 96 94 93 100 100 86 93 90 80 61 57 71 100 100 100 100 100 100 100
82 83 88 87 90 93 96 94 88 82 81 86 98 100 100 100 100 97 94 100 99 99 76 99 97 99 87 66 67 77 88 97 88 94 100 100 96 95
81 82 82 90 93 95 98 92 91 81 87 93 96 90 94 98 100 100 96 98 100 100 87 98 98 100 98 86 78 71 72 73 87 98 100 99 98 98
83 79 83 91 94 95 96 95 93 99 99 99 94 97 100 100 100 100 100 100 100 99 76 100 99 93 100 99 73 67 82 87 96 94 89 94 99 98
87 90 92 96 95 97 93 92 100 100 100 99 100 100 100 90 87 86 83 84 89 94 79 90 96 99 97 94 99 79 77 83 96 97 97 96 96 98
92 95 97 96 78 55 72 87 85 100 100 100 100 100 95 92 86 84 80 84 84 78 80 86 98 96 100 100 100 99 100 90 93 100 98 98 99 98
96 96 96 81 83 77 84 93 100 100 100 100 100 100 100 100 91 93 96 91 92 78 76 84 96 98 96 97 100 95 90 100 99 96 98 97 99 99
98 94 87 84 92 95 99 100 100 100 100 100 100 98 96 97 88 90 96 100 98 90 82 79 85 96 96 93 92 84 99 100 100 97 96 99 98 99
95 90 90 98 99 100 100 98 94 95 98 98 95 97 97 95 96 93 93 96 99 92 93 88 93 95 87 79 86 95 99 100 95 96 98 98 98 100
86 99 100 100 100 100 99 96 93 93 97 96 96 94 96 96 94 94 96 98 95 91 92 100 99 99 99 100 80 82 98 96 100 94 100 98 99 100
100 100 100 98 99 98 96 95 92 92 95 95 95 97 96 97 96 96 97 98 98 97 99 93 100 100 100 100 100 80 92 98 100 98 98 95 98 98
92 89 88 91 94 96 96 96 96 96 96 96 95 96 96 97 95 95 95 94 100 100 100 96 89 91 90 80 100 95 82 90 100 98 99 100 100 96
75 72 84 93 98 99 98 98 97 96 96 96 96 96 96 97 96 96 96 99 97 100 100 100 89 88 82 88 91 94 98 85 85 97 98 98 99 98
69 81 93 96 99 98 97 98 98 96 96 96 96 96 96 96 97 97 98 100 100 100 100 100 99 85 83 89 93 97 98 98 100 99 97 98 98 98

GFSNE_850_rhum_045.txt.gz
RH
20 20 21 22 26 32 38 49 62 64 58 49 45 41 44 50 58 69 71 70 74 80 84 86 86 86 86 88 94 98 98 98 98 97 97 95 95 97
22 22 22 24 28 32 42 54 59 62 64 57 56 56 60 66 70 73 71 73 79 79 83 83 80 85 88 93 96 98 99 98 99 98 98 98 98 96
25 26 24 27 33 41 48 53 58 62 65 65 71 74 76 78 79 74 79 74 77 77 75 82 86 88 93 94 95 96 97 98 99 98 98 98 98 97
26 27 30 41 42 46 53 59 63 67 74 76 78 82 83 80 80 84 83 89 69 71 76 82 88 89 92 96 96 95 99 98 97 98 98 100 99 99
32 36 36 42 50 57 61 69 73 78 78 79 82 81 81 85 91 95 78 75 72 73 79 83 89 93 95 92 92 92 94 97 99 95 97 99 99 97
39 44 46 50 57 67 69 83 87 84 88 90 83 84 96 99 89 79 73 75 82 84 82 79 90 90 91 88 93 97 98 99 100 100 99 98 98 99
33 43 54 60 63 81 91 91 92 90 88 84 99 99 99 88 84 75 80 90 80 94 94 60 90 73 72 78 79 94 98 98 100 100 100 99 100 100
42 40 52 62 69 79 89 89 88 93 96 98 94 100 96 84 81 87 88 100 98 85 97 73 78 69 78 72 86 96 99 100 100 100 100 100 100 100
41 58 68 72 80 84 85 85 89 90 93 92 97 90 88 86 84 87 99 99 100 90 97 86 76 75 74 74 85 95 89 76 96 100 100 100 100 100
62 72 77 78 82 84 87 91 86 87 92 87 87 88 85 90 97 98 98 90 87 88 100 99 82 77 88 80 60 58 63 100 100 100 100 100 100 99
70 73 76 82 79 87 93 92 94 89 83 84 90 96 100 97 95 94 86 97 96 89 88 100 96 95 81 65 63 67 72 77 77 87 98 100 100 98
72 79 78 79 86 92 95 98 92 91 88 86 90 90 92 87 98 97 96 97 95 100 86 97 98 100 97 86 76 64 65 68 80 82 97 99 98 97
87 86 85 90 92 92 94 94 95 96 94 94 93 92 89 96 100 100 100 100 97 99 78 100 100 97 100 100 75 66 74 75 86 84 85 90 96 98
91 89 89 96 95 94 96 97 99 100 94 95 95 97 100 100 98 94 90 92 99 100 88 96 98 100 99 95 94 74 69 69 88 96 96 96 98 97
91 94 95 95 95 88 90 99 100 95 96 95 97 98 97 93 89 86 87 92 95 83 80 87 100 98 99 99 100 87 98 84 93 100 97 96 100 97
92 92 97 92 82 86 88 88 91 95 100 97 94 92 94 93 89 92 99 93 100 82 76 80 94 100 96 96 100 100 97 100 100 98 98 96 100 99
99 87 75 79 82 85 89 89 90 94 96 96 97 97 96 96 88 90 94 99 100 99 88 74 82 100 100 99 100 84 93 100 100 100 99 97 97 100
88 81 86 88 90 92 95 92 92 95 99 99 98 99 100 98 95 93 96 100 100 100 100 92 99 100 87 90 93 95 94 98 100 100 100 99 100 88
87 92 92 93 95 98 97 96 95 93 98 97 97 96 96 96 97 94 97 100 100 99 93 100 100 99 98 96 81 82 99 92 98 100 100 100 100 94
91 92 89 86 93 95 97 97 95 94 96 94 94 96 96 97 96 96 99 100 100 98 100 100 100 100 99 98 100 68 70 97 98 98 96 100 100 98
88 78 80 91 94 97 98 98 98 96 96 96 95 95 96 97 94 95 98 99 100 100 98 96 100 100 100 100 100 100 86 99 98 98 97 100 100 99
77 76 89 95 98 98 97 98 95 94 95 96 95 96 96 98 97 97 100 99 96 99 96 99 99 96 100 100 100 100 100 98 85 96 97 99 99 98
75 93 94 97 99 99 98 98 96 94 97 97 96 96 96 96 96 98 99 94 99 100 100 100 100 100 100 100 100 97 99 96 92 95 94 98 98 98

GFSNE_850_rhum_048.txt.gz
RH
20 21 22 22 23 25 29 34 49 66 60 42 45 40 36 39 48 52 58 57 79 82 85 85 83 85 85 84 89 94 98 98 98 98 98 99 98 97
23 24 25 24 24 25 26 29 38 54 63 51 49 52 61 72 69 66 65 77 72 85 87 85 85 85 86 88 92 97 98 100 98 99 99 98 98 98
27 27 26 26 26 24 28 35 42 54 64 60 63 77 80 81 75 80 68 80 86 85 83 85 84 84 87 91 92 95 97 99 99 100 99 100 99 99
28 28 27 28 25 28 38 47 58 62 70 79 84 85 88 76 71 77 82 76 71 77 85 82 87 90 92 93 94 95 93 92 95 97 99 99 99 99
29 28 28 30 29 38 48 55 59 63 75 87 85 81 74 77 85 85 76 74 80 75 80 85 88 93 97 95 94 91 93 93 97 98 99 99 100 100
24 28 30 37 47 57 62 70 85 90 91 86 91 91 97 98 92 95 87 84 76 75 72 63 96 70 82 86 74 81 98 100 100 100 100 100 99 100
17 19 31 42 50 69 80 82 89 92 90 97 100 100 100 100 99 92 92 84 73 78 100 69 80 63 58 59 61 60 96 100 100 100 100 100 100 100
16 21 31 41 51 76 84 88 87 89 92 88 97 100 98 94 95 95 84 82 100 94 100 79 72 63 64 69 67 91 96 100 100 100 100 100 100 100
18 30 46 58 66 75 82 86 87 93 93 96 94 91 95 94 94 89 89 100 100 92 96 94 69 74 73 72 66 67 83 75 87 100 100 99 99 98
20 38 67 73 77 84 83 91 96 86 83 94 96 95 95 93 97 98 98 99 81 78 96 100 79 80 73 72 63 59 62 68 100 100 100 100 100 99
25 45 58 77 83 86 91 86 87 86 86 83 96 100 100 100 100 98 91 96 90 92 86 100 94 94 78 66 60 68 71 68 69 73 86 100 100 100
31 51 70 90 91 92 91 97 99 88 85 94 86 76 73 78 81 89 99 97 98 99 80 100 95 98 98 83 75 70 63 63 69 72 76 82 84 100
90 86 87 94 94 92 92 94 94 95 96 90 81 77 78 80 83 86 95 100 99 98 76 100 97 94 100 98 78 71 71 68 71 71 73 79 89 98
92 94 89 95 95 94 95 93 97 99 90 87 90 87 89 87 87 86 85 87 90 97 87 90 98 100 97 97 93 78 74 70 76 77 85 88 90 99
88 95 98 98 94 89 79 96 99 86 90 93 91 88 89 87 87 85 82 85 87 82 80 86 100 99 98 98 99 90 88 78 74 90 88 89 100 100
90 96 86 72 78 81 67 76 82 87 94 97 95 90 90 90 87 89 92 92 95 81 77 87 98 100 98 96 100 95 82 100 81 90 100 99 100 100
99 80 60 63 62 64 74 81 84 86 89 91 94 95 91 92 89 90 91 97 100 94 86 78 88 100 98 96 97 86 89 91 87 94 100 100 100 100
89 72 66 68 71 77 84 86 86 89 92 96 97 96 97 99 98 93 94 97 100 93 94 92 99 92 92 95 96 96 93 92 86 91 100 100 100 94
66 64 68 69 78 88 93 95 93 90 94 96 97 97 99 98 98 92 94 99 94 93 90 94 98 98 98 98 85 96 96 90 95 99 100 100 99 94
66 70 68 80 92 96 96 96 91 90 94 93 94 97 98 98 95 96 99 98 96 96 97 88 100 97 98 99 98 72 85 97 98 97 96 100 100 99
69 69 85 93 95 96 97 96 95 96 98 97 96 96 96 97 96 98 100 97 100 99 100 98 100 100 100 96 99 93 72 79 92 98 97 99 100 100
78 92 93 95 97 98 97 96 95 96 96 96 95 96 97 98 98 98 100 100 98 98 98 98 100 100 99 100 97 94 90 81 80 84 96 98 98 99
95 93 93 95 97 96 98 97 97 96 97 97 98 96 96 96 99 100 100 99 99 98 98 96 100 100 92 97 99 97 95 92 93 88 80 98 99 97

GFSNE_850_rhum_054.txt.gz
RH
34 28 24 22 23 24 25 27 30 41 36 27 24 23 25 26 26 30 34 38 38 49 72 92 94 94 92 90 86 91 97 94 98 99 98 98 98 97
31 25 24 24 26 26 27 27 29 36 52 36 28 28 31 32 34 42 47 44 47 48 60 96 96 94 92 92 98 92 92 98 97 98 99 98 98 98
37 44 29 27 28 28 26 27 30 35 44 41 41 47 48 42 38 41 41 46 44 38 48 97 98 96 95 92 94 97 96 98 99 99 99 98 98 99
29 28 28 29 28 26 26 30 32 35 43 53 64 65 72 68 67 64 54 45 46 42 55 98 98 97 97 100 100 100 98 98 98 100 99 96 97 98
57 34 29 26 22 23 29 32 34 44 60 75 80 82 84 75 75 64 68 57 57 57 64 71 65 81 96 100 100 100 98 100 100 100 98 100 100 100
31 27 22 20 21 28 30 35 54 70 72 78 87 93 86 81 77 86 79 67 66 65 67 76 68 75 66 80 70 61 60 73 98 100 100 100 99 100
23 18 18 20 22 28 45 66 76 77 85 93 96 91 92 84 81 74 85 80 80 69 69 100 66 70 60 62 62 63 59 90 100 100 100 100 98 100
18 17 16 15 18 28 42 54 86 93 94 95 93 94 89 82 77 90 94 95 100 75 81 81 69 70 64 63 64 64 86 100 100 100 100 100 99 99
17 15 13 17 24 29 38 56 83 90 93 95 97 88 84 76 94 98 98 100 98 71 80 88 71 67 62 66 64 61 63 94 100 100 100 100 99 100
16 17 21 22 23 35 77 94 92 90 91 86 84 90 98 95 97 100 98 94 91 81 78 100 73 72 71 67 62 60 61 64 86 100 100 100 100 100
18 20 24 26 36 93 96 100 100 92 84 81 83 97 97 89 85 91 84 97 91 89 73 92 80 79 76 68 64 67 68 70 72 68 73 96 100 100
14 23 29 42 87 97 96 98 97 85 86 95 82 76 71 72 75 84 91 100 100 100 82 97 94 88 99 89 79 77 67 64 65 66 69 70 81 100
24 28 35 62 100 100 98 96 87 96 98 88 74 72 71 73 75 79 84 94 99 99 80 100 97 92 100 97 85 76 73 69 70 66 67 69 72 83
41 55 77 99 99 73 56 53 98 98 77 78 79 77 80 80 79 82 86 89 92 90 81 89 98 98 98 95 94 79 75 73 70 66 69 69 72 76
72 92 83 69 49 44 49 62 75 80 82 82 83 83 86 86 83 86 85 84 86 77 75 82 93 94 100 99 100 92 82 69 69 67 71 74 78 77
76 60 58 52 50 57 71 77 80 84 89 92 90 88 86 90 88 89 89 92 93 77 71 78 85 94 97 97 98 89 75 98 75 70 77 83 83 88
73 47 43 44 56 74 77 78 80 84 86 88 91 91 92 92 88 86 88 91 95 90 82 74 79 89 90 88 88 77 77 75 72 78 92 94 89 83
52 53 51 66 81 83 82 82 84 85 88 92 92 94 94 93 92 88 95 97 97 93 90 83 88 88 82 87 94 86 77 84 79 91 100 100 100 92
55 57 76 88 88 88 88 89 86 87 90 92 94 95 96 96 97 93 95 97 96 92 87 92 97 99 97 100 80 95 97 93 97 99 100 100 100 84
61 80 88 90 92 91 91 92 92 90 92 93 97 98 98 98 95 97 98 100 98 94 97 92 91 97 98 98 98 76 81 96 98 97 90 89 86 81
74 87 90 93 92 92 94 94 95 91 96 99 96 97 97 98 95 98 99 98 100 99 97 89 86 94 96 97 100 91 79 84 97 97 95 97 90 85
86 87 89 92 94 95 94 95 93 92 95 97 97 92 95 97 99 100 99 100 97 96 94 91 87 95 95 98 97 96 93 87 92 96 97 98 98 98
89 89 90 92 95 96 96 95 92 92 95 98 97 90 94 97 100 99 98 96 96 96 99 96 90 94 96 97 97 96 95 92 91 85 76 85 98 99

GFSNE_850_rhum_057.txt.gz
RH
51 52 31 28 25 24 23 25 28 32 30 23 24 23 24 23 22 23 24 29 32 30 27 41 79 95 96 95 93 91 92 95 98 98 99 97 99 98
44 46 35 26 26 32 37 30 28 34 45 35 28 23 24 24 25 29 32 35 34 32 30 53 96 98 98 95 94 99 98 94 94 98 99 99 98 98
45 61 50 62 37 28 28 28 28 31 42 36 32 29 33 29 24 30 32 35 29 23 26 50 99 100 97 96 95 96 99 99 100 100 99 99 100 99
70 68 50 42 45 42 31 25 26 33 40 40 44 47 55 48 53 54 50 38 31 29 38 74 98 96 100 100 100 100 99 99 100 100 100 99 97 99
51 74 78 48 36 25 22 24 29 33 36 54 64 66 75 74 71 65 58 46 42 45 48 55 58 54 72 97 100 100 100 100 100 100 100 98 99 98
82 79 67 46 26 19 20 27 31 35 55 63 72 91 94 81 79 77 75 56 63 55 53 62 58 59 64 56 60 60 62 66 97 100 100 100 100 100
39 30 22 19 18 18 21 27 57 75 71 87 98 94 87 83 85 80 76 80 80 63 56 68 62 62 55 58 58 59 58 58 95 100 100 100 100 100
23 21 18 17 16 17 23 34 51 86 97 98 96 96 93 92 83 80 90 94 100 78 68 74 68 64 58 60 59 57 58 83 100 100 100 100 100 100
21 18 17 16 20 23 26 33 56 74 96 97 96 93 90 81 92 95 98 99 100 82 77 77 76 67 60 65 59 57 55 64 95 100 100 100 100 99
19 20 24 24 22 25 42 78 86 90 91 87 85 89 96 95 96 100 100 93 88 82 79 81 75 71 70 68 59 57 59 62 65 99 100 100 100 100
28 31 31 25 27 36 88 98 99 90 80 79 77 84 84 86 83 84 81 91 89 86 81 81 72 84 77 72 65 63 68 69 73 79 95 100 100 100
20 23 30 34 47 100 98 96 93 71 80 79 65 67 68 71 74 82 88 96 99 100 92 95 96 98 94 88 86 78 67 66 67 69 72 77 95 100
20 23 31 52 100 100 99 83 61 97 95 76 72 71 70 72 74 78 81 90 95 99 80 100 96 100 100 97 90 78 71 69 71 66 66 69 76 90
29 40 56 90 77 50 42 44 79 85 76 77 77 74 76 76 76 80 83 87 90 91 81 95 96 97 99 94 91 80 78 79 74 67 70 68 70 77
61 78 65 46 40 38 47 66 75 78 80 79 79 79 85 86 83 81 80 81 81 78 80 85 93 94 99 99 99 92 86 74 73 72 76 74 75 76
60 50 46 44 47 59 76 78 80 82 86 89 86 86 87 87 85 89 87 88 90 75 74 81 88 96 96 94 98 88 74 97 78 72 76 78 81 82
51 40 40 44 64 76 78 78 81 83 85 88 90 91 91 92 91 91 92 94 98 92 81 74 81 90 92 90 88 78 78 76 75 79 88 91 85 89
40 46 50 73 82 84 83 81 82 86 86 88 91 95 97 96 94 92 99 99 96 89 87 82 88 91 83 78 91 87 78 85 80 90 100 100 98 78
48 57 79 86 86 87 88 88 85 87 87 91 92 96 97 96 99 95 95 96 93 89 86 89 94 98 96 99 77 95 96 92 100 94 93 100 100 78
54 71 84 86 89 92 91 89 87 86 88 90 95 100 98 99 95 95 95 98 95 92 93 90 96 97 98 97 98 78 87 96 96 95 94 96 96 83
63 82 85 88 91 93 92 91 90 88 92 99 99 98 93 100 96 95 96 96 97 96 95 94 96 97 96 96 99 91 81 96 98 97 95 96 88 76
81 86 87 89 92 94 92 92 89 88 94 99 100 99 100 100 98 98 99 99 96 96 95 94 95 95 96 98 96 95 93 84 90 92 97 98 98 98
89 90 90 92 94 93 93 92 89 89 97 100 98 98 98 98 96 97 97 95 97 96 97 94 91 93 96 97 97 96 96 94 94 94 78 94 97 98

GFSNE_850_rhum_060.txt.gz
RH
67 65 51 48 53 30 32 26 25 28 30 29 24 21 23 26 23 25 28 24 24 26 27 24 34 80 95 96 96 94 94 92 99 99 91 89 97 99
59 50 56 38 39 46 38 59 58 31 31 28 24 23 25 25 26 29 28 32 32 34 28 26 80 98 99 99 99 100 100 99 99 100 100 99 99 99
55 62 50 46 56 77 68 49 46 39 29 26 26 25 25 26 24 24 28 35 31 27 24 27 86 100 100 100 100 100 100 100 100 100 99 99 99 100
65 59 71 87 85 86 81 61 30 29 30 31 30 34 36 32 31 37 43 45 45 32 27 41 83 64 84 98 100 100 100 98 99 100 100 100 100 100
76 87 82 90 95 92 80 52 26 27 31 38 43 45 47 47 62 61 66 57 39 33 44 52 54 52 52 90 100 100 100 100 100 100 100 100 99 98
84 93 94 93 93 58 24 26 26 27 31 40 52 58 76 77 76 77 72 58 53 57 49 56 58 55 56 56 59 58 58 56 56 94 99 100 100 100
100 98 85 40 23 19 20 23 25 20 27 43 68 86 89 87 88 83 73 73 78 65 52 56 55 54 50 54 57 56 55 54 56 99 100 100 99 99
94 33 21 20 19 18 19 22 21 26 41 80 99 99 92 92 86 73 87 91 96 79 68 68 65 60 56 60 60 59 57 56 61 98 100 100 99 99
25 22 21 21 19 18 16 14 20 40 81 96 96 94 91 75 86 93 97 97 100 82 83 77 69 63 61 64 62 58 56 55 60 84 100 100 100 99
23 23 21 17 16 17 20 48 78 74 80 83 78 70 77 97 99 100 98 86 86 79 82 80 68 69 77 70 65 57 58 60 63 93 100 100 100 100
23 18 18 17 19 24 94 100 95 72 60 51 54 68 75 74 75 82 80 92 88 85 82 92 75 88 79 73 72 73 70 70 70 76 74 88 100 100
16 20 26 32 61 100 99 98 69 45 53 51 60 63 69 72 77 83 88 95 99 99 90 99 92 99 92 86 87 83 69 64 64 64 66 71 78 100
26 30 36 42 94 86 82 62 50 92 87 75 73 72 72 73 75 78 82 89 95 93 77 100 93 92 100 97 80 71 70 67 66 63 64 68 74 85
31 39 37 31 33 37 39 48 94 86 78 78 77 76 78 79 78 82 84 85 88 88 80 90 97 96 98 94 92 73 75 74 71 69 72 72 74 78
37 30 31 34 37 40 54 73 77 80 81 80 78 78 84 85 83 83 80 83 81 77 80 85 93 94 99 98 97 85 82 72 75 74 78 78 78 75
32 38 39 41 46 64 76 80 81 83 85 85 82 84 86 86 84 87 85 88 85 72 75 79 86 97 95 94 98 89 80 98 79 79 85 85 86 84
45 40 42 48 70 75 75 78 80 82 84 85 86 90 91 87 82 85 90 90 96 89 76 75 88 92 91 92 92 82 81 80 79 82 95 96 82 79
39 41 46 69 78 80 81 79 82 85 88 87 91 96 94 90 84 83 91 92 92 86 84 83 88 89 82 80 88 85 81 85 82 93 99 100 97 85
41 49 66 79 80 83 86 87 86 87 88 92 95 96 95 96 99 87 89 92 89 88 85 90 95 98 98 100 79 96 95 84 92 93 95 99 100 78
51 61 79 82 83 84 88 88 86 86 88 93 96 99 100 100 95 92 94 98 95 95 94 87 95 97 98 98 98 73 96 96 96 94 90 93 91 80
55 77 83 84 86 88 91 90 90 89 92 100 99 95 100 100 94 93 96 96 100 99 96 90 88 98 97 96 99 89 83 96 97 98 97 98 97 91
73 82 85 88 90 92 93 94 90 88 92 96 96 97 100 96 94 99 97 100 97 94 93 91 88 95 95 97 96 93 88 70 64 73 91 98 98 96
83 84 88 91 93 94 94 93 90 86 94 99 93 100 100 89 96 98 99 98 97 96 95 97 91 92 94 96 97 95 88 85 86 85 69 69 75 94

GFSNE_850_rhum_063.txt.gz
RH
100 97 88 72 52 59 66 32 35 37 47 51 43 47 30 26 23 23 22 20 17 13 17 20 21 50 93 94 97 97 95 94 96 98 99 99 100 97
99 93 66 53 44 44 51 52 53 70 84 69 47 37 28 22 22 24 24 23 22 26 28 29 39 91 95 97 98 100 100 100 100 100 98 100 100 100
81 59 48 51 55 52 57 81 91 89 94 86 54 29 23 22 19 19 18 22 24 22 26 27 37 93 100 100 100 100 100 100 100 100 100 100 100 99
53 48 54 69 75 84 96 98 93 94 74 38 28 22 21 21 26 20 27 33 37 31 23 24 37 48 51 78 99 100 100 100 100 100 100 100 100 100
54 67 80 92 99 100 99 99 90 45 32 38 32 20 22 21 38 43 42 36 29 22 29 46 48 50 50 53 90 99 98 99 98 100 100 100 100 100
83 87 97 98 99 99 85 36 25 26 24 26 33 39 56 55 58 57 69 52 48 43 45 49 48 50 49 51 55 55 53 52 54 87 100 100 100 100
99 100 100 100 84 24 19 20 21 20 22 44 61 78 76 93 96 86 87 95 92 56 52 56 52 54 50 54 53 51 53 55 56 89 100 100 100 100
100 100 90 24 22 22 25 26 27 27 65 76 77 90 94 98 97 97 100 100 100 62 68 82 64 58 57 60 58 56 55 58 82 100 100 100 100 99
52 25 26 27 27 25 20 18 26 43 57 80 95 97 96 69 86 93 92 96 96 63 78 87 66 67 64 61 57 54 52 54 56 67 100 100 100 99
31 30 25 21 18 17 27 38 37 45 58 67 66 56 73 96 100 100 86 87 84 70 88 98 65 71 74 67 58 57 55 56 58 67 98 100 100 100
23 19 18 18 21 40 82 68 48 43 42 41 51 65 68 68 73 79 79 90 88 71 77 90 75 86 75 64 65 64 68 65 64 68 70 84 100 100
19 21 22 22 25 91 89 59 47 39 45 54 59 60 66 68 74 82 86 90 93 91 86 97 88 90 100 86 79 70 66 65 66 68 68 71 79 100
23 27 27 27 33 30 38 35 39 82 65 66 64 65 68 71 74 78 84 91 96 94 80 100 91 90 100 95 78 70 72 69 70 68 71 72 75 82
32 32 30 28 29 30 33 46 67 69 72 71 71 72 72 74 76 81 82 85 91 90 83 91 96 94 100 97 90 76 78 74 77 75 75 76 78 81
30 28 26 29 32 39 58 69 71 74 77 78 77 76 82 84 81 79 77 79 77 77 79 84 90 94 98 97 99 83 85 74 77 77 80 80 78 81
30 32 33 36 47 68 75 78 79 80 81 83 80 80 82 82 80 83 79 81 76 68 75 78 85 98 95 91 95 81 76 98 76 76 83 84 86 86
35 36 39 48 71 75 76 78 80 82 82 83 83 85 84 84 81 82 85 86 88 82 75 75 86 91 89 86 83 78 84 80 79 84 93 91 77 81
35 38 48 71 76 76 76 77 82 83 85 86 89 92 90 88 84 82 94 92 90 86 84 81 85 90 88 93 86 87 84 85 88 98 98 100 85 85
39 44 64 75 76 79 82 83 82 86 87 88 93 94 94 96 100 91 87 89 89 89 86 86 96 100 100 100 84 96 95 90 95 92 92 97 99 80
46 58 77 77 79 81 84 86 84 84 87 90 91 94 97 100 100 92 92 96 99 100 99 90 91 99 99 98 99 72 90 96 98 93 86 91 90 83
54 77 82 83 84 86 88 88 87 87 89 92 97 97 94 100 99 92 92 94 99 100 99 89 86 93 96 98 98 88 76 89 97 97 91 97 86 84
71 80 83 87 89 90 90 89 88 88 86 90 95 92 94 100 99 94 94 98 97 100 97 94 89 95 98 100 98 92 82 74 74 78 86 97 97 96
78 81 86 90 92 92 92 92 91 88 91 93 95 89 100 100 91 97 97 96 100 100 96 94 92 100 100 100 99 95 81 76 77 78 70 84 96 97

GFSNE_850_rhum_069.txt.gz
RH
100 100 99 100 100 100 98 92 94 86 83 85 84 64 65 70 66 75 84 87 94 90 38 17 10 8 7 7 10 17 40 77 94 96 96 98 98 100
100 100 100 100 100 100 100 100 91 98 86 82 74 77 76 93 96 100 99 95 59 24 16 10 9 10 11 12 22 57 95 96 97 97 97 96 98 98
100 100 100 100 98 100 98 99 95 92 81 79 86 88 97 98 99 98 58 23 22 15 13 16 13 13 18 30 52 69 86 97 98 98 100 100 100 100
100 100 100 100 100 98 90 78 76 78 89 100 99 99 100 99 63 35 30 20 22 18 23 23 15 38 38 39 42 51 82 96 99 100 100 100 100 98
100 100 100 96 85 60 69 89 94 99 99 99 99 81 34 25 24 24 26 33 46 46 57 47 48 57 42 44 44 49 60 78 85 93 95 96 98 99
98 89 79 73 75 84 98 100 99 100 94 63 28 41 40 39 61 63 80 80 49 50 59 48 79 50 56 49 46 56 54 52 58 84 94 100 100 100
78 76 85 90 98 100 99 98 73 27 21 26 30 67 77 79 83 83 82 78 52 57 56 58 72 61 52 51 57 55 72 91 96 99 100 100 100 100
95 100 100 100 100 98 72 20 16 15 20 40 57 52 80 86 83 80 81 61 69 52 76 53 64 60 51 53 52 63 71 72 91 99 100 100 100 99
99 99 95 55 28 20 17 14 15 20 28 40 50 80 91 83 79 62 68 90 76 69 99 83 61 71 59 57 54 56 57 60 54 56 89 97 100 100
93 73 30 20 16 14 16 31 40 42 57 60 62 54 59 70 77 80 74 78 73 73 96 88 66 74 59 60 57 55 55 58 58 60 61 66 96 99
20 19 18 18 18 17 30 54 45 65 63 36 28 38 50 56 60 64 65 83 92 66 73 81 78 83 64 53 54 58 64 66 68 68 67 68 89 100
27 22 20 23 20 19 22 31 46 39 38 55 60 59 62 63 67 70 76 85 94 88 87 88 78 87 98 63 66 67 64 65 70 73 69 79 98 100
26 29 27 22 20 19 19 23 30 38 67 71 64 67 71 77 81 86 90 90 88 85 77 100 92 80 96 90 70 69 73 66 68 69 68 70 74 92
25 25 26 22 22 24 27 31 43 59 63 66 67 69 75 72 72 74 78 81 82 78 72 86 95 88 95 93 94 73 71 69 70 69 74 80 83 81
26 28 28 27 29 31 40 57 64 65 67 68 71 72 72 70 73 74 74 76 74 70 72 80 90 90 100 99 99 85 77 72 68 76 82 88 89 86
40 32 29 31 36 52 65 66 67 69 70 70 70 70 71 72 74 77 75 75 77 72 74 77 86 99 100 100 100 91 86 99 76 82 91 94 96 88
32 31 34 40 56 73 72 71 71 71 72 74 75 75 75 77 80 82 82 86 100 94 79 83 93 100 100 100 92 84 83 90 88 94 100 100 87 80
32 35 42 54 71 71 70 71 72 74 76 76 78 78 79 83 88 85 86 100 100 100 100 95 100 100 98 97 98 82 97 95 94 98 100 100 97 74
32 37 41 63 73 72 72 72 75 80 82 82 81 81 83 85 92 92 92 100 100 100 97 100 100 99 99 100 96 98 93 91 95 92 91 98 100 81
31 37 51 72 75 76 77 80 83 86 88 89 87 86 89 92 96 98 98 100 100 100 100 100 92 96 99 98 99 90 84 97 97 97 96 99 99 85
32 40 62 75 79 82 85 87 88 89 91 91 90 90 92 96 97 96 98 98 100 100 100 100 85 94 99 99 100 98 85 87 95 98 100 100 100 89
35 45 69 76 82 85 89 91 91 92 94 95 95 95 96 100 100 99 98 97 91 93 100 92 92 97 98 100 100 98 89 82 84 87 82 94 98 98
39 48 67 74 80 84 88 91 92 92 95 96 97 96 98 99 98 97 96 94 96 93 97 97 97 95 98 98 100 96 94 87 98 95 77 84 92 94

GFSNE_850_rhum_072.txt.gz
RH
100 100 100 100 100 100 100 100 99 98 89 77 88 99 99 93 91 86 83 80 90 94 97 94 43 16 11 9 9 19 24 40 73 96 96 96 97 93
100 100 100 100 100 100 100 100 99 96 99 100 97 98 99 94 92 88 96 99 100 98 60 22 17 15 28 18 12 16 46 86 96 99 99 100 99 100
98 99 100 100 100 100 100 100 100 99 99 97 90 90 92 96 98 100 100 98 75 50 32 16 15 29 16 15 23 46 86 93 96 100 98 100 100 100
99 100 99 100 100 100 100 99 93 87 88 93 90 97 100 99 100 98 60 27 18 21 26 42 62 46 42 40 50 60 78 87 98 100 100 99 100 100
99 100 100 100 99 98 89 83 86 94 98 100 100 100 87 39 28 23 29 31 32 39 33 25 42 38 43 66 50 78 92 99 100 100 100 100 100 100
100 100 99 93 81 84 92 99 100 100 99 87 50 19 23 37 42 39 43 44 32 26 33 43 45 46 48 48 48 53 56 77 96 97 97 98 99 100
94 87 82 84 98 99 97 99 82 60 47 18 19 29 40 48 62 73 66 33 25 42 46 47 51 46 46 47 51 53 55 82 97 97 100 100 100 100
88 99 100 100 100 98 97 83 27 20 18 17 20 29 55 73 80 67 41 34 46 54 57 36 51 48 48 50 53 56 64 79 97 100 100 100 98 98
99 98 99 99 96 69 26 20 16 22 24 27 36 44 55 53 39 31 47 52 53 53 70 42 54 52 51 53 55 56 59 63 62 65 90 99 100 100
90 72 39 20 19 21 18 23 42 46 52 43 33 31 24 29 43 56 58 58 54 56 70 63 59 57 55 54 56 56 59 62 66 91 99 100 100 100
17 17 17 19 20 19 35 43 50 47 44 30 24 39 49 54 56 56 59 65 58 54 60 73 73 74 59 52 56 58 62 66 69 69 72 97 100 100
19 20 22 23 21 20 20 26 32 35 28 38 62 56 56 57 60 63 64 66 73 71 74 81 77 90 90 59 61 60 60 63 65 67 67 68 90 100
29 33 28 22 22 21 21 24 26 29 41 57 54 56 60 64 66 66 68 74 77 80 79 100 100 96 100 98 67 64 64 63 64 66 68 72 78 87
22 25 30 29 24 26 27 31 40 55 57 57 60 65 67 68 65 66 72 75 80 79 72 92 100 100 100 100 98 74 70 69 69 70 75 76 80 82
30 31 29 26 26 26 33 50 60 62 63 64 68 68 70 69 68 70 73 74 76 72 74 90 100 100 100 100 100 100 97 74 72 75 75 77 77 82
28 27 26 27 30 42 58 65 65 67 68 67 67 66 68 70 70 73 76 76 72 62 72 91 100 100 100 100 100 85 85 100 83 82 90 82 76 82
26 27 28 33 42 60 67 67 67 69 70 70 69 70 70 71 74 78 84 81 81 82 79 83 98 100 100 95 90 83 82 89 86 89 100 98 94 96
27 28 31 34 51 67 69 69 72 72 74 74 74 75 76 78 77 78 83 87 87 86 99 96 100 100 95 91 87 90 97 98 89 87 93 95 81 81
29 30 32 40 63 70 71 73 75 80 82 82 80 81 82 83 86 84 86 93 90 98 100 100 100 100 100 99 82 97 97 89 91 92 89 89 93 76
28 30 35 49 69 71 72 77 80 82 84 85 86 88 90 93 92 92 93 94 95 100 100 94 91 94 100 100 99 85 79 93 100 93 92 93 91 83
26 27 35 54 70 73 77 81 84 85 88 91 94 95 95 99 96 95 95 96 100 100 99 87 81 88 99 99 98 96 85 87 90 97 94 100 97 88
26 29 38 55 69 73 77 82 85 87 90 92 93 96 99 100 99 99 97 97 94 94 91 86 83 91 100 100 100 95 86 74 76 79 82 96 97 97
32 36 40 48 64 71 75 79 84 88 95 98 98 98 99 99 99 98 98 96 95 91 92 89 88 99 100 100 100 98 90 77 80 82 74 84 89 87

GFSNE_850_rhum_075.txt.gz
RH
93 92 99 98 99 100 100 100 100 100 98 96 92 93 92 98 92 97 98 100 100 97 93 98 100 90 42 28 30 33 60 57 83 95 96 96 96 95
95 99 93 99 99 100 100 100 100 100 100 99 98 100 99 99 100 100 100 99 96 98 99 97 59 40 49 31 43 50 59 94 97 98 99 100 100 100
98 95 91 91 91 98 100 99 100 100 99 99 100 98 100 99 99 95 95 100 100 100 88 52 40 31 39 38 66 96 97 97 100 100 100 100 100 99
94 96 95 99 99 100 100 100 98 99 100 100 94 94 94 96 98 98 99 93 48 31 25 31 34 33 35 65 83 87 99 99 100 100 100 100 100 100
90 94 100 100 100 100 100 95 88 88 90 99 99 100 99 99 82 45 30 32 33 35 28 28 35 42 42 54 74 86 80 75 87 88 91 97 100 100
94 99 99 98 95 85 85 93 100 100 99 99 94 78 53 34 29 28 34 43 49 36 34 39 43 46 47 47 49 50 50 50 52 66 97 97 95 100
95 93 90 88 89 93 99 99 99 100 98 84 31 21 26 39 46 52 43 48 32 37 44 49 44 46 50 50 52 53 53 57 86 98 98 96 100 100
82 87 94 98 98 100 100 99 97 43 26 24 24 21 40 50 56 49 41 29 46 48 40 42 47 46 49 52 53 54 57 58 83 100 100 100 99 100
97 96 97 100 99 84 43 22 22 20 20 27 30 38 41 42 38 29 38 49 51 58 49 40 50 49 52 53 55 55 55 59 61 64 85 100 100 100
82 62 39 23 19 20 26 26 34 46 44 48 40 37 33 31 36 48 53 54 52 58 66 55 56 47 43 44 49 56 59 62 65 67 68 77 98 100
17 18 19 23 31 25 26 35 42 42 47 56 38 40 46 56 61 61 60 58 52 56 64 70 68 50 41 42 50 57 60 64 66 66 68 68 71 99
16 21 25 24 21 24 21 22 25 30 33 30 51 60 57 58 61 64 65 64 68 65 70 71 72 85 75 56 54 54 57 61 66 68 69 70 69 68
19 21 24 22 23 21 19 21 24 28 32 52 60 60 62 66 67 68 66 66 69 73 76 96 86 92 100 92 57 54 51 53 56 61 67 72 76 76
22 26 28 26 24 23 24 28 35 49 59 61 62 64 65 65 66 66 65 67 70 69 68 78 96 100 100 100 94 58 61 62 60 58 68 70 74 79
26 24 25 24 24 26 33 49 64 66 66 67 66 64 65 66 65 63 62 64 65 64 66 68 92 100 100 100 96 78 78 69 64 71 73 77 76 76
24 24 25 25 29 38 55 66 67 67 67 67 66 67 68 68 66 65 64 66 67 63 72 79 88 100 100 99 98 80 78 99 76 82 91 82 82 78
23 24 25 28 31 44 61 65 67 68 68 72 73 74 74 74 70 72 72 73 76 74 72 78 85 93 97 97 88 75 74 86 86 88 95 90 84 84
22 23 25 25 29 50 63 65 67 69 72 76 78 80 80 80 76 78 84 84 84 82 84 86 92 93 98 87 79 81 89 89 85 89 97 99 90 80
23 25 24 26 32 56 63 65 68 73 78 81 84 87 89 89 94 90 90 93 89 87 86 87 91 100 100 100 76 85 98 81 90 93 86 88 95 81
20 22 24 27 38 60 66 68 74 78 82 85 87 91 92 92 90 90 92 94 91 90 94 88 82 90 100 100 100 72 74 88 90 98 97 91 86 78
20 21 23 30 44 64 70 72 77 81 85 88 90 92 95 98 93 94 94 95 99 99 94 81 80 86 94 98 92 94 85 83 86 95 100 99 93 86
24 25 29 35 42 57 68 71 74 78 81 87 92 93 94 96 95 96 96 97 96 98 92 83 84 86 87 97 100 100 95 75 78 82 83 92 98 97
25 28 32 36 41 46 57 67 71 73 78 87 93 94 96 95 96 98 96 98 99 93 89 90 88 88 92 97 100 100 100 91 87 80 63 72 82 88

GFSNE_850_rhum_078.txt.gz
RH
98 94 90 89 98 99 99 100 100 100 98 98 100 94 91 94 90 86 99 100 100 99 100 100 98 99 100 99 98 98 95 93 95 96 96 95 97 96
88 80 96 84 92 87 98 100 100 100 100 100 99 99 100 100 99 99 100 100 99 100 100 99 98 98 91 73 64 70 69 90 97 96 100 100 100 100
72 77 93 94 92 86 91 98 100 100 100 100 100 100 100 100 98 100 100 99 100 99 100 98 83 56 34 57 93 86 86 94 95 100 100 100 98 98
79 89 95 88 89 87 93 98 99 99 100 100 100 100 100 99 100 100 100 99 99 84 43 33 32 32 29 32 30 40 64 95 99 100 100 100 100 100
86 85 84 84 96 100 99 99 96 94 92 93 96 100 99 100 100 99 94 53 36 37 40 31 21 22 29 37 42 65 61 45 44 42 43 72 96 98
82 81 82 92 98 96 92 90 91 95 96 98 100 100 100 92 56 42 41 38 39 39 24 25 36 41 44 43 44 45 46 46 46 47 49 75 96 97
88 89 89 86 86 88 92 93 95 98 99 99 98 88 39 40 36 35 47 48 36 28 37 42 44 44 45 47 48 49 49 50 51 62 82 98 100 99
83 86 92 96 95 99 97 96 98 92 89 52 23 23 32 28 36 46 44 32 36 43 44 41 42 44 45 49 52 53 54 54 53 52 64 99 99 100
90 92 92 98 98 93 76 45 20 15 20 21 24 30 36 42 40 32 28 41 47 50 46 40 45 46 49 50 47 47 52 55 58 63 82 81 86 97
68 53 30 21 17 15 16 18 24 32 37 43 45 40 36 33 28 30 46 52 55 53 51 48 50 43 43 43 43 53 58 60 62 63 61 61 60 64
16 17 17 17 17 13 13 14 20 30 35 32 30 29 34 52 62 55 55 57 57 60 60 60 55 41 35 44 51 57 63 60 61 65 65 64 62 61
14 16 17 16 16 17 17 18 21 28 30 35 35 55 63 63 63 60 60 65 68 65 70 77 70 66 44 41 48 52 56 56 56 56 60 66 66 68
15 18 21 21 21 21 19 20 26 28 35 38 53 64 61 62 63 66 69 69 67 71 79 94 78 80 95 69 40 45 56 59 55 50 53 66 78 77
20 22 22 20 20 23 24 28 34 43 56 61 61 62 64 66 67 67 68 67 68 71 77 85 72 68 85 80 63 49 59 62 56 48 58 64 70 78
20 20 20 22 22 26 30 39 54 63 63 63 64 65 66 66 66 66 65 66 69 71 79 84 83 80 90 86 76 60 71 64 58 61 68 72 74 72
18 20 21 22 24 28 38 50 61 64 63 64 66 66 65 66 66 67 67 68 68 64 82 87 89 93 87 84 87 68 74 88 68 71 80 77 78 75
18 19 21 23 27 33 46 62 65 66 65 66 66 69 70 70 72 75 77 78 77 73 70 76 87 93 91 91 77 70 75 72 71 76 85 84 74 76
17 19 22 23 24 31 50 64 66 66 67 71 75 77 80 80 81 86 90 92 89 85 84 82 82 80 69 64 71 71 74 78 78 84 86 93 84 75
16 19 20 22 24 29 50 63 64 68 73 77 80 83 84 85 87 88 91 92 89 88 86 85 85 91 100 97 73 74 87 80 81 82 87 86 92 73
16 17 20 20 23 29 49 63 66 70 75 80 83 85 88 89 89 90 91 92 90 86 82 84 88 91 100 100 100 69 72 82 87 88 86 89 83 73
19 20 20 20 25 31 44 59 64 66 73 78 82 87 92 95 92 93 93 94 96 96 91 83 80 84 94 96 96 74 69 77 98 100 99 100 100 88
20 21 24 28 31 35 38 46 55 63 68 73 77 87 95 95 94 94 94 95 94 95 90 82 80 84 86 94 90 86 76 79 83 81 82 84 100 99
20 21 23 26 29 32 35 39 43 48 59 67 72 81 93 93 95 96 96 96 98 96 92 87 89 86 86 88 92 100 100 100 99 77 72 82 92 92

GFSNE_850_rhum_081.txt.gz
RH
96 82 96 94 94 100 99 97 92 100 97 89 100 98 97 98 100 98 100 99 100 99 100 99 100 100 100 100 99 100 99 98 96 95 94 96 96 96
66 72 88 95 86 98 85 88 86 98 100 99 99 99 99 100 100 100 100 99 98 100 100 100 100 100 99 99 99 94 81 90 95 96 96 98 96 96
60 65 73 74 87 86 96 87 83 86 99 98 100 99 98 99 100 100 100 100 100 100 100 100 100 99 89 60 59 52 51 86 96 98 98 98 100 99
62 71 75 85 89 88 87 84 84 86 89 94 98 98 99 99 99 99 99 100 100 98 98 97 56 26 24 26 23 29 59 98 98 83 72 83 95 96
71 74 84 87 85 85 98 100 100 95 93 92 92 94 97 100 100 100 100 99 93 56 28 28 28 26 19 30 36 43 44 42 40 38 36 36 36 55
77 83 90 91 94 95 92 90 90 89 91 95 97 99 100 99 100 89 54 35 29 31 33 26 19 27 37 39 40 40 40 40 40 40 42 50 74 98
85 89 89 86 87 90 91 93 94 95 99 100 99 98 92 58 38 38 35 36 37 28 17 25 37 40 40 40 42 44 44 45 46 47 52 81 100 100
83 85 86 90 91 93 96 93 97 95 92 90 69 32 27 34 32 38 46 40 22 32 39 43 47 44 46 48 51 49 48 48 49 50 49 54 78 85
86 87 87 86 86 75 62 40 25 18 16 18 19 21 24 28 35 41 37 27 38 51 48 40 44 44 48 51 49 43 41 44 49 49 53 55 53 53
26 19 16 15 15 16 18 19 20 23 26 27 29 34 32 30 34 36 35 50 51 51 51 46 45 44 43 41 37 41 47 55 58 59 59 59 59 58
12 12 12 13 14 12 13 13 16 23 30 29 28 27 25 27 90 79 69 65 56 56 56 55 49 44 36 32 44 50 57 64 60 54 54 54 56 58
10 11 13 14 17 18 16 16 17 18 21 25 29 31 49 58 59 61 62 65 68 62 57 62 57 55 42 41 49 52 51 58 61 59 57 56 54 56
12 14 16 17 17 17 15 16 18 18 22 25 33 46 59 59 60 62 66 68 68 67 65 82 76 69 70 58 47 49 51 51 52 56 56 50 61 72
14 15 16 17 18 18 19 20 22 24 35 46 55 58 59 60 61 62 63 64 65 67 69 80 87 82 85 78 68 50 55 54 51 53 53 55 60 74
14 14 14 16 18 19 21 24 31 44 54 58 60 62 63 62 62 63 63 63 64 66 70 78 84 84 89 84 85 66 72 54 55 60 60 64 66 68
14 15 16 17 19 20 27 34 42 54 61 62 63 64 64 64 65 66 66 68 66 66 76 82 87 92 90 86 89 77 69 79 62 62 70 72 64 68
12 15 16 18 19 22 27 35 49 60 62 61 61 64 67 69 72 78 78 78 80 80 77 83 89 94 93 91 83 71 65 68 69 73 78 78 71 68
14 15 16 17 18 20 24 35 50 60 61 62 66 70 72 75 77 84 89 91 88 85 85 85 86 87 80 69 69 63 67 71 72 74 79 90 81 69
14 14 14 16 17 18 23 30 49 61 62 64 70 74 77 80 84 88 92 92 89 88 87 88 88 93 92 81 67 73 77 77 82 75 77 83 90 65
15 16 17 16 16 17 21 28 44 58 63 66 71 76 81 86 86 89 92 93 91 87 83 84 87 95 96 95 91 63 70 77 84 83 76 81 77 68
15 15 16 18 21 22 24 29 36 47 58 63 66 71 80 88 88 92 95 96 96 96 92 86 87 92 94 100 100 72 65 71 86 98 92 93 78 97
15 15 16 17 19 23 26 30 34 38 41 48 57 65 71 80 87 93 95 95 92 92 90 87 85 85 87 92 88 82 71 68 76 87 90 92 99 100
15 16 17 19 20 22 24 26 28 31 35 39 42 49 61 70 82 93 95 96 95 92 90 88 87 88 86 86 86 86 82 82 95 82 68 79 84 82

GFSNE_850_rhum_084.txt.gz
RH
90 85 88 90 79 91 100 98 99 99 98 93 89 85 86 82 77 84 96 98 99 98 98 98 99 97 99 99 99 99 99 99 99 99 96 95 99 96
79 80 70 64 77 89 90 91 93 94 97 95 99 82 79 80 86 90 97 99 99 100 99 99 98 99 98 100 100 99 98 98 97 96 97 98 99 97
70 62 57 63 71 76 85 81 89 86 85 86 79 92 95 98 97 98 100 99 98 99 99 99 100 100 100 99 98 76 40 46 87 95 98 97 100 100
55 58 64 70 78 86 90 89 92 89 88 94 99 100 100 100 98 98 99 100 100 99 100 99 98 97 79 40 25 21 19 27 55 55 48 60 76 96
64 74 73 86 90 88 93 99 100 96 93 94 94 93 94 96 98 95 96 99 100 98 88 44 31 31 32 23 20 27 35 38 38 37 36 37 39 48
80 81 90 91 84 86 90 89 88 87 93 96 97 98 100 100 99 99 96 79 45 30 27 27 28 23 20 36 40 40 38 37 38 40 44 46 59 87
84 87 86 82 80 83 87 89 90 94 97 98 100 99 96 89 69 48 37 32 30 27 25 19 23 28 39 40 40 39 40 42 44 46 48 50 70 87
82 80 79 79 85 87 91 92 92 93 92 89 80 67 43 33 32 31 28 28 24 19 20 36 41 41 42 41 42 43 45 45 43 43 43 44 49 61
79 77 74 72 61 43 28 18 16 16 16 17 18 20 23 27 32 32 30 23 20 32 38 38 43 43 44 45 45 42 40 41 41 42 46 49 51 53
16 12 13 14 14 15 14 15 15 16 17 18 20 24 25 25 27 27 27 25 40 45 48 45 44 44 47 46 39 35 38 46 52 54 54 53 51 47
10 11 11 12 11 11 11 12 14 16 19 19 21 23 28 34 30 40 49 52 48 52 56 56 51 44 42 37 36 45 51 52 50 53 57 58 56 53
9 11 11 11 12 14 14 13 13 14 17 19 22 24 29 46 56 57 58 58 61 60 58 60 54 52 47 44 50 48 54 58 54 59 54 58 58 53
10 11 12 12 12 13 12 12 14 15 19 22 28 37 47 54 55 57 60 62 62 62 66 71 59 58 60 55 42 44 51 57 62 59 57 58 56 59
10 10 10 10 12 13 13 13 14 18 27 37 48 54 56 58 59 61 62 61 62 61 62 68 70 68 71 69 57 48 54 61 65 57 59 63 59 63
10 9 10 11 12 14 15 16 21 28 39 50 55 55 57 58 60 60 60 60 61 65 70 71 74 76 83 79 72 64 67 62 66 60 65 63 60 59
10 10 11 12 13 14 17 21 27 35 45 52 55 56 56 59 61 63 63 64 63 72 84 88 89 88 84 80 82 73 74 81 62 58 66 58 56 57
9 11 12 13 13 14 16 20 28 38 50 56 56 56 60 67 70 74 76 77 77 78 78 86 91 91 88 85 80 74 74 67 65 69 71 65 57 60
10 11 12 11 12 13 15 17 20 31 50 58 57 58 64 72 76 79 84 85 80 81 82 84 85 87 85 78 78 73 69 67 72 72 72 78 62 58
10 11 12 13 13 14 14 16 19 26 41 56 57 59 65 72 78 82 90 91 86 87 86 87 89 94 96 89 74 78 67 72 80 72 75 76 75 60
11 11 11 12 14 16 18 18 20 24 30 42 52 59 63 70 74 79 91 91 88 85 83 82 85 95 99 98 91 65 74 78 78 76 71 76 72 64
11 11 12 13 14 15 17 19 22 26 31 35 38 42 51 62 67 74 85 92 94 92 89 87 88 95 96 95 89 69 65 74 80 88 84 91 76 68
12 11 12 13 14 14 17 19 21 23 27 30 33 36 40 45 52 66 76 85 88 92 90 88 88 91 92 92 88 82 73 67 70 78 83 89 91 98
10 11 12 13 14 15 17 19 22 24 28 31 33 36 39 40 42 49 63 72 80 91 93 90 91 91 89 92 88 82 78 75 74 69 62 70 82 88

GFSNE_850_rhum_087.txt.gz
RH
91 88 84 88 87 88 87 92 93 98 92 91 96 85 81 75 78 78 82 92 89 98 99 99 100 100 97 95 98 99 100 99 99 98 99 99 98 99
86 88 90 82 82 69 81 87 94 97 100 99 92 86 79 74 77 76 87 98 99 100 100 99 97 96 97 99 98 97 92 94 97 97 94 98 98 100
93 85 70 68 61 67 74 78 83 78 93 99 90 88 83 82 84 92 100 99 99 99 99 100 99 99 99 100 98 95 93 59 29 61 96 99 99 99
99 79 59 58 62 69 73 78 84 92 93 93 97 100 100 99 99 99 100 99 100 100 100 100 100 99 99 93 58 23 19 14 18 59 74 62 60 63
57 56 58 64 68 74 78 84 97 97 96 92 93 93 91 91 93 95 97 96 96 98 96 91 60 32 26 25 19 12 18 30 35 37 36 36 37 39
62 66 70 72 78 80 88 88 85 84 84 85 90 94 97 96 94 95 96 92 81 63 36 22 24 22 22 17 27 35 37 37 37 38 38 39 39 45
80 80 80 82 83 83 82 80 81 82 83 85 95 98 95 93 82 63 45 31 22 19 18 17 16 18 26 31 37 38 38 39 41 43 44 45 46 47
84 83 83 81 84 85 80 76 77 65 61 59 62 60 45 35 26 22 20 20 20 15 15 22 30 37 39 40 40 40 41 43 44 43 41 45 42 46
81 80 78 77 64 38 16 11 12 13 13 16 17 19 20 22 21 22 21 19 18 21 26 36 41 43 42 41 40 41 41 41 40 40 42 42 43 46
58 29 18 11 10 9 9 9 10 11 14 14 15 17 18 17 16 18 21 22 30 42 44 42 42 43 46 43 39 35 34 33 40 44 40 41 44 47
9 10 9 8 8 8 8 9 10 12 14 13 13 14 16 15 21 34 48 48 48 49 50 51 46 43 44 40 36 35 44 44 46 48 46 44 42 40
8 9 8 9 8 9 9 11 11 13 14 15 17 19 20 28 41 48 50 52 54 57 57 57 53 53 51 48 44 50 45 51 54 53 56 55 49 43
9 10 10 10 8 10 11 12 12 12 15 18 23 30 39 46 49 50 50 52 56 60 67 62 57 61 64 59 51 55 54 53 58 61 64 58 50 52
10 11 11 8 9 10 12 11 12 12 19 26 35 44 48 49 52 53 54 56 56 58 63 68 64 68 73 67 55 52 57 62 64 65 58 58 57 57
11 10 8 9 10 12 12 12 13 18 25 36 45 48 49 51 53 54 56 57 58 64 67 69 72 78 77 78 74 68 66 66 68 68 65 58 60 62
10 10 10 11 12 13 13 15 17 21 27 36 44 48 49 50 53 57 59 62 63 76 81 79 83 84 80 80 81 71 73 76 68 67 63 57 59 62
10 11 12 13 13 13 13 14 17 20 24 34 44 49 51 52 58 63 64 66 69 72 78 87 86 85 81 80 77 74 73 71 67 65 69 60 56 60
10 11 12 12 11 11 12 13 14 16 19 29 40 46 52 57 60 64 66 69 72 79 81 83 85 83 78 71 74 73 74 72 66 68 70 69 50 56
10 11 10 11 11 12 13 14 15 17 19 23 32 42 51 56 60 66 70 74 77 81 84 88 89 91 87 82 78 79 74 75 72 68 70 72 67 55
10 10 10 10 11 12 13 14 16 18 20 23 28 34 38 42 49 57 64 70 76 79 79 85 90 96 95 92 90 72 79 80 80 74 70 71 68 61
9 9 10 10 12 13 14 14 16 17 19 22 24 28 32 35 35 40 45 59 70 74 74 78 91 99 96 92 83 73 75 78 80 81 80 81 75 67
9 9 10 11 11 13 14 15 16 17 21 23 25 28 32 34 33 36 38 40 53 66 70 71 83 95 96 96 88 81 70 70 71 73 76 82 88 95
8 9 10 10 12 12 14 16 16 18 21 25 28 30 32 33 36 37 37 39 43 48 54 62 78 90 90 92 92 85 77 73 72 69 64 69 70 74

GFSNE_850_rhum_093.txt.gz
RH
100 98 96 96 95 85 83 99 100 100 88 92 90 83 89 89 88 81 78 76 75 74 79 86 88 95 99 92 92 98 96 92 89 86 88 91 97 97
100 96 98 99 99 86 85 89 97 99 97 96 93 95 94 90 86 79 78 80 82 77 81 95 96 94 94 92 93 86 86 89 86 85 87 95 100 98
99 99 79 100 99 88 88 84 82 83 100 100 97 94 94 83 80 82 82 82 84 87 87 92 88 88 87 91 92 91 89 87 87 74 47 45 97 99
98 99 96 100 93 91 79 64 66 77 86 85 87 96 94 91 91 90 92 93 95 88 88 86 80 82 83 90 89 85 79 53 22 14 13 18 21 34
100 100 100 100 98 79 62 69 74 81 84 87 98 97 98 94 92 86 85 87 88 86 87 84 82 80 79 65 34 17 12 10 9 12 22 31 33 32
99 100 100 89 66 64 69 74 78 82 87 87 86 85 87 87 90 88 85 83 81 80 72 58 37 19 12 11 10 11 12 21 28 33 34 34 34 34
80 74 69 67 67 72 77 79 77 80 82 77 79 84 86 87 84 76 83 70 44 24 15 12 10 9 9 12 18 22 27 33 35 35 36 37 40 40
73 72 72 73 78 79 80 77 76 78 76 76 74 78 73 61 49 34 21 18 32 16 12 11 10 13 18 28 31 34 34 35 36 37 38 39 36 36
86 86 85 82 84 83 79 77 68 51 31 20 22 27 23 14 12 13 14 13 13 15 12 18 24 31 35 36 34 35 36 37 39 39 36 36 36 39
95 91 86 81 79 69 29 11 9 8 8 9 10 11 11 12 11 11 11 12 14 19 28 32 39 38 39 39 35 36 36 35 34 34 34 39 41 42
92 87 81 50 17 9 8 7 7 7 8 8 9 9 8 8 8 12 19 25 35 40 35 40 42 39 40 40 39 39 39 37 38 41 42 44 44 45
80 32 12 9 9 8 6 7 8 8 9 10 10 9 9 12 14 21 28 32 34 45 43 47 41 43 43 48 47 41 42 44 44 44 48 47 48 46
13 11 10 8 9 7 6 8 10 10 10 11 12 13 16 21 29 32 34 35 38 44 42 47 46 46 47 47 45 50 49 50 51 52 54 57 57 58
13 12 12 11 8 6 7 8 9 9 12 14 16 20 26 31 34 36 38 41 42 45 50 50 51 53 56 54 49 56 57 60 61 60 60 62 62 62
12 12 11 10 7 7 8 9 9 11 14 17 22 27 32 34 37 37 38 40 44 48 51 55 57 61 63 65 63 58 58 56 60 61 65 63 62 60
12 12 10 8 8 10 10 10 10 14 16 19 22 24 30 35 36 37 39 42 44 50 54 60 63 67 67 68 71 61 66 68 62 64 66 65 63 56
11 11 10 10 11 11 11 12 13 14 14 17 18 23 30 33 34 36 39 45 49 54 59 63 66 68 67 72 69 66 67 64 65 65 72 66 63 58
14 11 12 12 12 12 12 12 13 13 14 14 17 20 25 28 30 33 38 43 48 55 63 67 72 74 72 63 65 67 68 69 67 70 71 71 63 63
12 12 11 12 13 12 11 11 12 12 13 14 16 18 20 22 25 26 31 34 38 45 55 61 67 75 82 75 66 71 68 73 77 74 76 76 71 65
11 11 10 12 13 12 12 12 12 13 14 15 16 17 19 21 23 25 28 28 28 30 35 37 51 64 83 85 82 55 75 79 83 78 73 75 72 65
11 11 12 12 12 12 12 12 12 13 15 16 17 17 19 21 23 27 29 32 34 35 32 30 37 82 98 84 71 48 56 73 85 82 76 76 69 63
8 10 11 12 12 12 13 13 13 13 14 16 17 18 20 21 24 27 30 33 35 37 36 38 40 44 51 56 52 54 56 66 77 83 83 84 89 93
11 10 10 10 10 11 12 12 12 13 14 16 18 19 20 21 24 28 31 36 40 44 48 53 58 59 60 67 78 78 76 73 73 70 68 77 81 80

GFSNE_850_rhum_096.txt.gz
RH
98 98 98 100 98 97 100 98 94 98 98 92 88 88 87 82 83 86 84 83 78 78 76 75 78 78 82 82 85 87 80 75 82 81 83 83 82 85
98 87 98 73 100 100 100 97 92 92 100 98 94 98 98 95 87 88 89 82 80 80 77 79 80 80 81 80 79 83 89 88 85 86 84 82 83 87
99 100 77 98 97 100 98 97 90 90 100 100 100 100 99 98 87 85 88 82 83 82 86 89 88 87 88 87 85 86 88 85 84 82 81 56 33 23
98 96 97 98 96 100 98 94 87 68 70 90 99 100 100 99 92 87 91 89 92 96 96 89 88 84 84 82 85 88 86 83 73 37 14 11 10 12
99 99 100 99 99 99 89 89 59 62 69 75 90 95 100 100 96 90 90 91 90 89 86 86 85 80 78 75 66 45 23 13 10 8 8 13 24 30
99 100 99 98 97 99 90 63 66 72 77 80 85 97 97 93 88 84 88 86 82 80 74 68 59 38 22 13 10 9 9 9 12 19 26 30 30 31
98 98 99 100 96 75 67 69 74 79 81 79 79 80 82 83 83 82 84 80 65 42 22 12 10 10 8 8 11 16 19 22 29 31 32 32 33 36
80 81 80 74 74 73 76 81 80 76 75 74 75 78 75 63 66 61 59 40 19 14 11 9 8 11 13 18 25 28 30 31 32 32 33 35 38 36
81 82 84 82 87 88 87 83 79 79 80 74 67 44 31 24 22 17 14 12 12 9 9 12 20 25 25 29 31 33 34 34 35 36 37 38 37 35
95 94 93 90 88 87 85 82 72 53 31 21 12 11 12 11 10 10 10 10 10 10 18 27 29 32 32 32 31 34 35 36 35 35 35 35 36 41
100 100 95 89 85 79 49 16 10 10 10 8 9 9 9 8 8 8 8 12 15 24 31 33 29 33 35 35 35 36 38 38 36 37 40 42 42 41
100 95 90 80 39 13 10 9 9 9 9 8 7 6 6 6 7 8 14 22 27 31 32 37 34 36 37 36 40 40 41 41 42 45 44 45 46 44
94 72 33 14 10 9 8 9 8 11 11 10 8 8 10 11 15 21 27 30 33 36 34 39 38 39 40 40 42 47 46 46 47 50 52 52 53 54
20 16 15 11 10 10 8 7 9 10 10 9 10 13 14 19 25 30 32 32 34 38 40 40 43 46 46 44 44 51 56 58 56 56 56 56 58 58
16 15 12 13 13 9 7 8 9 9 10 11 12 15 19 26 30 33 34 33 34 36 39 42 44 50 53 54 53 51 50 52 56 59 62 60 58 59
13 12 14 14 12 9 8 8 10 10 12 13 14 17 22 27 30 31 32 33 33 38 40 42 46 50 56 60 63 56 62 63 60 64 61 56 56 61
13 13 13 12 10 9 11 12 11 12 13 14 14 16 20 23 27 28 27 28 30 33 37 41 45 49 54 57 56 58 62 63 72 67 64 61 57 58
18 14 13 12 11 12 12 12 12 13 12 13 14 15 17 19 21 21 20 22 25 27 29 36 44 49 50 44 54 54 59 65 73 74 75 76 62 65
14 14 14 11 12 13 12 11 11 11 12 13 13 14 16 17 19 19 20 21 22 24 25 27 32 40 55 44 36 53 52 61 67 67 75 76 72 61
12 11 11 11 11 11 13 11 10 10 11 13 14 15 15 17 18 19 21 22 24 25 27 28 30 36 44 45 44 37 55 60 64 64 69 76 69 62
11 10 10 10 10 11 12 12 11 11 11 13 14 16 16 17 18 19 21 24 26 28 30 33 40 44 57 66 60 40 42 49 57 67 77 88 70 60
11 9 9 10 11 12 12 12 12 12 12 12 13 16 17 18 19 20 22 25 28 31 34 39 42 49 55 53 51 54 53 56 64 71 83 86 85 88
16 14 12 10 10 10 12 12 12 12 12 12 13 14 17 19 20 21 23 26 29 32 37 43 51 60 65 71 73 71 68 67 70 67 67 74 77 81

GFSNE_850_rhum_099.txt.gz
RH
55 75 88 88 87 86 91 90 99 99 98 98 89 90 90 93 90 84 81 85 84 80 82 76 74 76 78 82 82 86 79 79 81 79 79 80 81 78
48 81 92 93 93 89 91 87 99 100 100 99 98 96 97 99 97 86 88 89 85 80 83 78 77 80 81 80 79 79 80 82 86 85 82 80 80 80
54 84 98 87 100 98 98 89 91 94 100 100 99 98 99 98 100 79 87 85 85 85 78 80 84 86 88 84 87 86 84 85 87 84 82 79 66 34
64 79 95 97 82 88 95 100 95 100 99 100 100 99 99 99 100 98 94 88 91 98 86 83 86 88 88 87 86 84 85 88 85 74 45 18 9 8
81 97 92 97 96 95 99 99 99 94 86 74 91 98 100 100 100 100 99 96 91 91 86 86 87 88 86 80 77 72 49 26 14 10 8 8 11 19
99 98 96 96 98 99 99 99 99 84 66 72 85 99 100 100 100 99 94 90 87 84 81 77 72 65 52 35 22 12 10 8 9 9 14 22 27 28
99 98 98 99 98 98 98 99 83 68 74 78 86 88 98 99 95 90 91 86 77 68 49 27 17 14 12 10 9 11 14 16 21 27 29 30 30 31
88 99 99 98 99 100 96 78 74 74 74 83 81 80 81 83 83 82 80 67 51 21 17 12 10 10 12 14 19 25 27 29 31 31 31 31 32 35
84 84 87 86 80 77 78 81 84 83 81 79 77 76 73 66 55 54 51 38 15 12 11 10 13 18 22 26 28 30 32 33 33 33 33 35 36 36
91 91 88 90 89 92 92 94 92 86 84 78 73 59 35 34 22 19 15 12 10 9 10 15 24 31 32 32 32 34 35 35 34 34 34 34 35 35
100 100 100 98 97 93 90 89 86 74 50 23 18 11 13 15 14 11 9 8 8 12 23 27 26 32 35 34 34 35 37 37 35 33 34 37 39 40
100 100 100 99 97 89 86 53 18 12 11 10 10 8 8 9 9 7 8 9 15 23 25 29 31 33 33 35 38 40 40 40 40 41 43 44 44 43
100 99 99 96 74 34 17 11 12 10 11 11 10 8 8 8 9 9 14 21 26 28 29 33 31 34 37 38 40 40 43 45 45 46 47 50 50 51
98 88 60 30 19 14 12 9 9 12 14 12 10 11 12 13 16 22 25 27 29 32 32 32 37 37 37 38 42 43 50 52 51 52 54 54 53 53
34 25 23 20 19 16 11 10 9 10 11 11 12 14 15 20 25 26 28 28 29 31 32 33 36 40 41 44 45 44 46 52 53 56 60 58 54 52
16 17 18 18 17 17 13 11 10 10 11 13 16 15 16 21 24 24 26 28 29 31 32 34 37 40 45 47 49 45 54 53 59 63 59 58 59 56
17 16 18 14 14 16 13 13 10 12 13 16 15 14 17 19 21 22 23 23 23 25 29 33 35 37 40 43 42 48 51 52 62 60 61 58 59 62
21 16 14 14 16 15 15 14 14 15 16 18 15 14 16 18 20 18 18 18 18 20 21 23 25 28 29 31 34 38 44 51 62 64 68 60 45 53
20 21 20 18 16 16 14 14 14 14 18 16 14 14 14 15 16 17 17 17 19 20 22 24 23 24 25 26 34 36 37 46 46 51 55 56 54 49
22 15 15 16 15 13 12 13 13 13 12 12 13 14 14 15 15 16 17 18 20 22 24 26 28 31 33 37 35 37 44 48 47 47 46 50 54 57
22 17 14 15 14 14 12 12 13 13 12 12 12 13 14 16 16 17 18 20 22 24 27 30 42 42 40 42 45 43 47 53 56 58 59 60 59 56
23 19 16 14 12 12 13 14 14 14 12 12 12 12 13 15 17 18 19 20 22 25 28 32 37 41 44 49 50 54 55 59 67 71 75 81 85 82
31 24 21 18 15 12 11 13 14 13 13 12 12 12 13 14 15 17 20 21 24 26 28 32 36 42 48 54 61 62 64 65 68 69 71 78 78 79

GFSNE_850_rhum_102.txt.gz
RH
75 75 75 70 84 92 91 89 88 99 96 94 89 93 96 95 95 92 90 86 88 96 86 74 82 81 79 78 82 86 94 84 75 77 80 78 80 76
39 41 48 58 79 93 82 85 87 95 100 97 97 98 100 96 97 99 99 92 89 91 87 82 80 76 80 80 79 78 78 79 81 84 85 84 79 78
40 39 44 72 83 92 88 96 94 93 99 97 100 99 99 100 99 98 98 87 94 88 82 83 84 84 85 85 85 82 81 82 84 85 86 82 80 65
51 50 51 70 84 87 91 92 99 99 98 99 100 100 100 99 99 99 100 96 97 99 88 88 89 90 90 88 86 85 84 83 83 86 81 59 22 9
61 65 72 82 92 92 89 99 98 99 99 100 100 100 99 99 98 98 97 100 99 98 92 89 91 91 86 85 83 81 78 66 39 19 11 9 8 10
62 98 99 99 100 100 100 100 99 99 100 99 93 96 100 100 100 99 99 100 99 95 92 87 81 81 80 74 62 42 21 12 9 9 12 13 18 25
63 82 99 98 99 98 98 98 100 98 98 94 78 98 100 100 100 100 100 100 93 87 80 68 53 38 26 15 11 10 10 13 13 19 26 27 27 28
72 84 97 99 98 97 97 97 97 100 84 80 88 90 92 96 100 99 97 92 83 73 62 29 17 14 12 11 12 17 20 22 25 28 29 29 29 30
76 86 91 98 100 100 98 97 93 82 81 87 89 86 86 88 90 87 83 80 73 40 20 17 13 14 17 20 24 26 28 29 30 30 31 32 33 34
89 94 98 98 97 96 95 96 99 97 93 87 84 81 78 76 77 69 66 53 41 20 15 14 18 25 27 30 30 30 30 30 31 32 32 33 34 34
100 100 100 100 100 100 100 100 97 97 93 88 84 81 65 39 35 26 22 17 16 13 14 20 26 30 30 32 31 30 31 33 34 33 33 34 34 36
99 100 99 99 100 100 98 98 90 83 64 39 26 16 13 12 14 13 13 11 11 11 22 30 29 29 31 30 34 35 36 35 36 38 38 39 41 42
100 100 100 99 100 99 96 84 48 25 18 14 13 14 11 11 10 8 9 11 16 20 26 30 30 30 34 34 35 36 39 40 42 42 42 44 46 48
100 100 100 100 88 62 27 20 17 16 16 17 14 12 11 10 11 11 15 24 25 26 29 31 30 31 34 36 40 37 42 44 48 47 50 49 48 49
98 84 64 42 26 24 18 17 15 13 17 18 15 15 15 16 16 20 26 28 28 29 28 28 30 32 32 33 36 40 48 51 49 50 52 52 54 55
50 26 26 27 24 23 22 18 15 14 17 18 19 19 19 19 23 26 28 28 29 29 27 27 28 30 31 33 33 36 44 45 50 56 52 53 56 56
33 22 18 18 21 19 20 22 14 14 14 17 19 18 19 22 24 26 26 27 27 24 23 23 23 24 26 27 28 34 40 41 49 50 46 45 52 58
31 19 18 17 18 19 20 21 17 16 15 18 17 18 18 19 23 24 23 22 21 19 19 20 20 20 21 24 25 26 30 36 48 50 50 44 38 44
31 25 25 24 19 18 18 18 17 19 20 19 19 20 19 19 25 21 19 18 18 19 20 21 21 23 24 24 29 30 31 36 43 49 46 43 38 38
32 31 21 22 21 21 19 16 15 17 18 17 18 19 17 18 20 17 17 18 19 20 21 22 24 27 29 33 34 33 38 44 49 46 46 46 46 48
48 28 24 23 22 20 18 15 14 15 16 16 16 16 16 18 17 16 18 19 22 22 22 25 30 34 34 34 36 36 47 54 57 57 59 58 55 52
51 34 28 23 20 19 18 16 16 14 14 15 14 14 14 16 16 16 18 20 20 20 22 28 30 31 32 34 35 41 46 55 65 69 71 69 67 65
86 67 42 35 27 24 21 17 15 15 16 16 16 15 14 14 13 14 17 20 21 22 23 27 29 31 33 34 38 41 45 52 58 62 68 77 75 69

GFSNE_850_rhum_105.txt.gz
RH
73 76 77 76 72 79 84 87 90 100 99 98 98 93 93 92 100 95 95 95 88 100 100 83 83 85 80 78 90 94 99 100 93 80 79 80 80 79
59 51 49 47 48 73 100 100 99 100 100 99 99 95 97 98 99 96 94 100 96 94 98 90 82 84 82 81 80 80 77 73 75 78 83 85 85 79
42 45 47 48 45 56 98 98 100 100 100 98 100 96 100 100 99 100 97 100 99 100 98 92 84 82 79 85 80 81 79 80 80 82 84 86 84 78
51 51 57 60 61 93 92 97 100 100 100 100 98 100 100 100 100 100 100 98 100 100 100 90 87 84 89 89 86 86 85 81 83 82 83 84 81 42
52 55 60 64 76 95 100 99 96 100 98 99 100 100 100 100 100 99 99 97 100 100 100 96 86 89 92 93 89 86 83 80 78 73 50 26 11 8
56 57 62 76 93 98 100 98 99 100 100 99 100 100 99 100 100 100 99 98 99 100 100 94 92 89 86 86 84 79 72 59 33 14 9 7 8 13
60 63 66 74 92 96 98 100 100 100 100 100 100 99 100 96 94 98 100 98 99 100 98 90 83 76 67 59 51 34 19 10 9 10 14 19 24 26
58 64 73 80 99 98 96 94 98 99 95 96 98 97 85 100 100 99 100 99 99 90 87 78 64 37 20 13 10 9 10 11 14 20 24 26 27 27
60 66 78 89 100 99 98 99 98 98 98 99 98 88 90 92 99 100 100 99 98 85 53 63 30 16 13 11 11 16 20 24 27 28 28 28 29 30
63 75 98 100 100 100 100 100 95 89 94 98 97 95 96 94 98 98 96 97 92 76 52 17 14 13 18 18 21 25 27 28 30 31 30 31 32 33
72 95 99 99 99 99 99 100 100 100 100 99 99 92 90 88 83 81 73 72 64 47 25 16 12 19 25 29 30 28 30 31 32 33 32 34 34 33
90 100 100 99 100 99 100 100 100 99 98 94 94 92 85 83 63 46 46 38 28 18 13 15 20 26 31 29 30 31 33 32 34 34 34 35 38 39
98 100 100 100 100 100 100 100 96 80 55 36 23 23 26 27 26 24 19 18 17 13 17 21 26 29 32 29 28 31 35 36 35 35 36 38 40 41
98 99 99 99 99 99 97 68 53 42 30 24 21 16 16 21 15 13 13 13 12 16 25 29 30 32 33 31 32 32 34 36 36 39 42 44 43 45
96 99 97 97 88 66 43 30 26 21 20 21 22 19 17 18 16 14 16 18 24 29 29 28 31 33 32 31 31 34 37 38 41 42 44 46 46 48
97 98 65 38 33 32 32 28 23 19 23 27 30 30 22 19 20 21 26 28 32 32 28 28 29 28 27 28 29 32 38 46 41 43 44 45 48 50
100 72 35 25 20 22 25 28 26 27 22 25 26 25 22 24 26 27 30 31 31 28 28 25 23 22 24 24 24 27 33 32 38 46 41 40 47 50
99 63 34 28 21 20 24 29 28 27 21 20 25 24 24 25 27 29 30 31 27 26 22 19 18 20 22 24 25 23 23 24 29 35 36 36 37 44
95 68 42 54 29 25 22 24 23 24 26 28 26 24 23 24 30 28 30 29 23 20 19 19 19 20 21 22 26 27 27 29 30 34 37 36 32 33
94 68 38 42 33 29 31 28 25 25 24 26 26 24 26 28 29 24 26 24 20 19 19 19 20 22 26 30 31 30 31 34 38 40 41 42 40 43
96 90 66 47 35 36 30 27 25 24 22 21 22 22 25 28 27 22 22 22 19 20 20 19 23 32 31 35 41 40 39 38 43 46 49 50 51 47
97 94 94 80 38 35 31 27 25 25 23 19 18 19 20 21 21 19 19 20 21 20 20 23 30 32 33 34 36 36 36 40 46 52 56 57 60 60
98 98 96 93 75 59 43 35 29 25 20 19 18 18 19 19 18 16 16 18 20 22 21 22 27 30 30 33 35 36 38 38 41 45 49 62 64 61

GFSNE_850_rhum_108.txt.gz
RH
72 82 81 80 82 84 97 100 99 100 99 96 98 96 99 100 100 100 100 94 95 95 100 92 84 83 90 75 85 100 100 100 100 99 84 80 78 74
74 49 47 49 48 50 53 64 91 96 100 96 92 96 92 100 100 100 100 95 93 98 100 100 93 82 91 84 72 87 90 90 89 81 80 81 77 80
44 44 46 50 52 54 55 63 73 99 96 100 100 100 100 100 100 99 100 99 97 99 88 100 100 91 84 86 83 78 80 80 77 79 80 82 82 80
48 49 50 53 59 64 66 98 100 99 100 98 98 93 100 100 100 100 100 100 98 100 98 100 100 92 85 85 85 85 82 82 82 82 82 83 80 79
50 51 51 53 54 58 68 92 98 100 98 100 100 100 100 100 100 99 100 100 99 99 100 100 100 91 94 94 90 89 88 88 81 79 77 77 68 33
54 53 54 57 61 65 82 96 100 99 100 100 100 100 100 100 99 99 100 99 99 99 100 100 100 98 98 99 94 89 85 83 75 68 51 27 12 7
58 58 58 59 62 70 85 94 95 100 100 100 100 100 100 100 98 99 100 100 100 98 99 100 100 99 89 84 81 78 75 64 40 18 9 7 6 10
64 64 62 62 64 77 99 99 97 94 99 100 100 99 99 100 100 100 100 100 100 99 99 98 92 83 69 54 42 29 19 12 8 9 10 18 22 25
66 66 63 62 65 85 100 99 98 98 94 97 98 97 98 95 98 100 100 100 99 99 92 92 83 69 39 21 13 11 11 12 16 19 22 24 25 26
70 70 66 65 89 98 97 98 97 99 100 100 100 99 100 100 100 100 100 100 100 100 97 65 52 39 18 15 11 14 18 22 26 27 27 26 29 30
73 73 70 82 100 95 93 97 99 98 98 98 99 100 100 100 97 96 100 99 99 99 91 73 26 15 16 18 20 24 26 28 29 29 28 28 30 31
80 80 89 98 100 98 93 98 100 100 100 100 99 100 100 98 92 89 99 94 90 89 66 50 22 16 21 23 28 30 30 30 29 30 30 29 30 31
95 91 95 99 99 100 96 99 99 98 90 79 68 62 70 85 81 77 65 66 52 52 18 19 14 18 26 28 27 29 31 32 33 33 32 32 34 34
98 98 92 94 97 99 97 98 93 82 76 58 38 28 25 26 30 32 31 27 23 21 18 29 19 27 28 29 28 27 29 32 35 34 34 34 36 38
96 97 95 94 94 94 86 66 41 32 27 25 27 27 27 24 23 22 19 16 16 16 16 23 31 32 32 32 29 30 31 32 34 35 35 37 40 39
94 98 98 93 59 45 42 35 33 30 24 23 25 37 33 25 21 22 20 21 26 28 30 31 31 30 32 31 30 30 32 37 33 33 34 37 37 38
100 99 97 83 44 28 32 30 31 33 31 29 31 32 35 32 27 26 26 29 34 33 34 32 30 29 27 26 26 27 30 29 30 31 32 36 36 40
100 98 95 84 46 32 29 26 28 31 29 31 34 32 32 28 30 33 32 33 36 35 32 28 25 24 24 27 26 24 24 22 22 24 26 28 32 38
100 99 93 86 46 54 44 29 26 25 31 33 27 32 30 34 39 34 34 34 33 33 29 23 20 22 22 22 26 32 30 27 25 26 27 28 29 33
100 99 94 87 51 46 41 35 31 30 27 25 24 29 29 35 36 29 30 35 34 33 30 23 22 23 23 27 31 34 32 31 30 32 34 35 35 36
100 99 94 93 90 63 49 40 41 36 34 30 24 22 23 26 27 30 32 30 31 30 28 25 24 30 26 27 34 37 40 38 36 37 39 40 41 41
100 100 100 98 97 96 76 42 38 32 28 27 26 23 20 21 22 24 26 27 25 22 21 23 28 33 28 25 27 34 39 41 38 38 38 40 42 47
100 100 100 100 98 98 94 72 65 51 38 27 24 22 23 20 20 20 20 20 21 23 22 24 27 29 27 24 25 27 35 36 38 39 40 43 43 42

GFSNE_850_rhum_114.txt.gz
RH
85 87 75 68 78 65 68 83 98 96 89 89 92 78 86 91 90 93 82 84 88 99 100 98 91 94 90 90 77 64 52 89 100 100 100 100 94 85
74 74 77 56 45 46 47 50 57 76 99 91 93 84 97 86 91 98 94 99 100 99 100 99 95 97 93 93 84 87 100 100 100 100 100 99 94 85
61 45 44 45 46 46 47 49 54 66 91 92 95 87 97 98 92 99 96 100 100 100 99 100 97 98 86 100 89 83 80 98 100 100 100 96 88 79
48 48 46 47 48 46 47 50 52 55 63 98 95 98 93 90 97 100 100 99 99 100 100 100 98 97 89 99 97 94 91 84 91 94 97 88 84 80
46 46 45 48 48 48 50 53 54 56 73 78 91 92 98 94 100 100 100 100 100 100 100 100 100 97 92 99 100 100 98 92 89 89 91 84 80 72
47 49 49 50 52 55 56 57 60 61 64 78 99 99 94 94 99 99 99 100 99 100 100 100 100 97 95 98 100 100 100 99 93 91 90 84 77 77
53 54 54 56 60 60 61 60 62 63 66 76 98 99 100 99 100 100 100 100 100 100 100 100 100 99 100 99 98 100 100 99 95 93 89 82 73 63
60 60 61 63 64 64 64 61 58 57 59 88 100 99 99 100 100 100 100 100 100 99 100 100 100 99 100 99 100 99 99 98 93 87 80 69 49 24
64 63 62 62 66 68 65 63 64 67 85 99 98 98 99 100 100 100 100 100 100 99 100 100 100 99 100 100 97 84 76 69 64 64 50 26 12 18
64 63 65 66 69 65 64 67 75 82 86 98 99 97 98 98 100 100 100 100 100 100 100 99 100 99 99 97 85 69 48 27 19 17 14 13 18 28
65 68 68 68 70 66 69 78 86 86 89 93 98 94 93 97 99 100 99 100 99 99 99 100 99 98 95 88 78 56 24 17 16 20 22 23 27 29
73 76 78 82 81 79 95 97 96 92 90 95 95 96 99 99 100 100 100 100 100 100 100 100 99 100 76 57 42 29 20 17 23 28 30 31 29 31
75 82 91 96 96 92 95 97 98 95 94 95 93 89 86 90 99 100 100 100 100 100 100 94 98 99 67 23 23 23 24 26 30 31 31 30 30 31
80 83 84 90 93 94 93 92 91 92 91 79 78 79 71 52 40 54 87 98 100 100 100 100 77 53 65 36 26 28 27 31 34 35 35 33 34 33
78 83 93 82 85 93 90 87 84 79 61 46 38 35 34 34 31 27 30 43 65 77 81 80 69 36 26 26 24 28 29 31 33 34 34 35 36 35
76 81 85 96 99 100 90 63 51 55 44 34 32 28 27 27 27 24 25 28 30 34 36 36 33 28 32 36 36 34 32 30 26 29 32 34 35 33
80 81 88 99 99 99 100 74 42 36 41 31 32 31 30 31 31 28 27 28 29 29 29 26 26 25 32 38 37 34 31 28 28 29 29 30 30 29
70 84 98 98 99 100 100 86 53 35 33 27 28 33 32 32 34 34 32 32 33 36 37 40 38 38 37 32 30 29 27 26 28 30 30 30 28 27
88 95 99 99 100 99 100 96 56 57 44 31 28 27 32 33 34 32 34 34 34 35 36 39 39 40 36 30 26 25 25 28 31 34 33 32 32 30
99 99 99 98 98 99 100 98 66 59 47 38 35 29 29 32 32 31 32 32 34 36 38 35 36 34 30 30 25 24 27 32 35 35 35 35 35 37
97 99 99 99 99 99 100 100 92 68 57 46 43 39 33 32 30 31 31 34 34 35 35 30 30 40 40 28 26 24 26 30 34 36 37 37 38 39
97 99 99 99 99 99 98 100 100 100 80 62 44 41 39 39 36 31 28 27 30 32 30 33 34 39 37 32 33 27 27 29 31 35 38 39 39 40
99 99 99 99 99 98 100 100 100 100 100 96 69 51 53 51 42 37 34 30 26 28 29 32 38 39 36 28 59 63 27 27 33 36 31 32 37 39

GFSNE_850_rhum_117.txt.gz
RH
92 88 87 87 80 69 75 76 98 97 87 80 96 88 84 73 87 93 98 98 99 100 100 100 99 97 91 89 83 66 58 46 54 73 100 100 100 100
73 76 79 72 72 61 42 47 52 68 99 66 81 72 69 80 78 96 95 100 100 99 100 100 100 98 95 93 83 75 75 95 97 98 99 100 100 98
74 75 75 62 44 45 45 46 52 72 98 92 69 68 70 92 91 93 91 100 99 98 99 99 99 99 95 92 81 76 82 99 100 99 100 100 100 97
61 50 42 43 47 49 50 51 50 57 71 80 81 71 83 94 92 87 99 99 98 98 99 100 100 100 96 94 80 86 97 84 91 100 99 99 96 93
43 44 45 47 48 48 49 51 52 54 59 64 77 76 84 91 91 86 93 100 100 100 99 100 100 100 98 92 91 91 100 97 92 94 99 92 91 89
45 45 48 51 52 52 54 56 55 56 58 63 69 76 91 99 100 94 95 99 100 100 100 99 100 99 97 92 87 99 100 100 98 97 99 98 93 88
49 52 53 54 57 58 59 61 59 58 59 59 67 94 96 97 99 100 100 100 99 100 100 99 99 100 99 96 94 97 99 100 100 98 98 96 90 85
53 55 57 58 59 60 59 61 62 63 63 68 68 91 98 100 97 100 100 100 100 99 100 99 100 100 100 99 97 97 100 99 100 98 94 92 84 68
60 61 62 61 60 61 62 60 60 61 63 66 74 87 98 94 98 100 100 100 100 100 100 99 100 100 100 99 100 99 97 98 98 94 88 82 69 48
64 63 63 64 64 66 68 67 66 68 72 76 81 85 89 97 99 100 100 100 99 99 100 100 100 99 100 99 100 100 87 73 64 58 55 46 32 16
61 65 68 72 72 70 69 70 69 72 73 81 82 86 94 95 96 99 99 100 99 99 100 100 100 100 99 98 99 98 80 60 35 21 18 18 18 19
65 68 70 72 76 80 80 81 82 80 82 84 86 88 93 93 98 100 99 100 100 100 99 100 100 100 99 97 94 80 74 48 20 18 20 25 26 30
66 69 74 77 78 81 85 83 84 89 88 90 89 89 87 84 86 95 99 100 100 100 100 100 99 98 99 80 34 52 42 27 24 25 29 34 32 32
68 74 79 84 85 82 82 80 81 84 90 91 85 76 76 76 68 52 53 88 100 100 100 100 98 92 81 97 74 32 28 25 30 33 35 33 31 32
73 74 73 75 81 84 83 86 83 78 76 74 56 43 38 35 35 37 34 32 49 84 100 100 100 100 84 35 55 32 30 22 29 34 34 35 34 34
74 71 71 75 81 92 95 98 88 69 55 57 47 33 29 26 24 24 26 27 29 34 48 59 65 72 64 36 30 26 30 32 29 32 34 36 33 33
80 76 76 80 89 99 99 99 97 78 48 37 42 30 27 26 27 29 30 29 27 24 28 31 33 37 35 32 34 37 36 33 30 29 30 30 30 30
94 94 84 89 93 100 99 98 99 90 60 38 35 26 22 25 31 33 36 37 33 32 30 30 31 30 30 30 36 38 37 32 30 29 29 30 29 30
97 100 98 99 100 100 99 98 100 100 66 57 49 32 26 25 31 36 33 35 36 35 34 33 37 39 39 38 33 31 29 29 28 30 30 37 34 32
99 99 99 98 97 98 99 99 99 100 81 63 54 41 34 30 29 31 32 31 35 37 38 38 38 37 38 36 32 28 25 25 28 31 42 49 35 35
100 100 100 98 98 99 99 98 99 100 96 74 62 51 45 42 33 30 30 31 34 36 37 33 31 42 48 41 33 26 26 26 29 34 36 36 36 36
100 100 100 100 100 100 99 99 99 99 98 100 93 71 56 48 42 41 38 31 29 31 34 36 34 39 41 37 35 31 29 29 28 28 33 36 37 40
99 99 100 100 100 100 100 99 100 100 100 99 99 97 93 65 52 49 46 39 36 34 30 32 32 35 40 37 38 35 38 48 62 56 28 31 40 38

GFSNE_850_rhum_123.txt.gz
RH
78 82 99 85 99 100 100 90 78 82 67 62 75 76 78 68 66 58 54 70 93 97 99 92 87 98 96 97 87 91 82 73 64 55 42 44 69 97
73 90 76 68 90 99 99 79 70 48 51 55 63 74 68 56 52 53 61 72 86 97 91 93 100 98 84 81 82 87 83 73 60 50 63 49 55 99
65 65 70 69 79 85 79 70 46 45 42 53 55 59 57 49 49 57 64 80 90 91 90 97 100 99 95 94 97 95 83 71 67 71 83 65 82 100
76 67 69 78 80 77 63 49 49 46 45 45 48 50 51 53 56 56 58 78 87 87 86 89 90 97 97 97 97 93 82 72 67 89 96 100 100 100
65 73 75 82 77 60 50 50 51 49 49 50 52 56 54 56 57 58 59 62 83 100 94 88 100 98 99 96 98 92 85 75 71 71 88 96 98 95
75 79 78 81 60 50 48 49 49 51 54 58 62 58 59 61 59 55 57 72 87 96 90 94 98 94 99 97 97 92 84 74 72 79 79 91 99 100
98 82 80 57 52 50 51 51 52 55 60 63 63 63 62 61 59 60 69 83 88 90 95 99 98 99 99 100 100 97 93 89 86 91 100 99 98 98
80 81 59 53 51 53 53 55 56 60 60 60 61 62 60 61 62 69 78 88 90 93 99 99 98 99 99 100 100 100 98 92 90 96 100 100 100 99
79 57 53 53 54 53 55 59 60 60 60 61 62 64 64 67 68 74 82 89 88 92 99 98 100 99 99 100 99 100 100 97 90 88 100 100 100 100
56 54 54 54 56 59 60 59 59 60 62 63 65 65 68 75 77 83 84 84 88 91 97 98 98 99 100 100 99 99 99 99 91 92 98 100 100 100
56 57 59 60 61 59 59 60 63 65 67 68 69 70 76 82 84 84 85 91 90 90 100 99 98 99 100 100 99 99 99 99 90 96 92 90 96 92
61 62 64 62 58 57 58 57 58 66 72 78 79 80 83 83 81 84 87 91 99 99 98 99 98 100 99 98 100 100 100 96 94 93 79 64 54 47
65 65 62 58 58 59 59 60 65 69 73 77 83 86 87 87 86 84 80 78 87 99 100 100 100 99 99 99 91 83 80 78 96 90 75 55 28 25
70 66 63 60 62 65 65 65 68 76 80 82 83 85 90 86 78 72 72 72 69 64 80 99 99 99 100 100 99 90 78 90 67 69 63 42 31 25
74 71 69 69 69 70 70 69 70 77 83 87 83 77 75 59 45 36 32 31 33 40 41 43 92 100 100 100 98 98 75 58 71 40 42 33 30 31
78 76 76 75 74 76 74 69 73 86 98 99 89 67 53 49 39 28 25 25 21 23 23 26 32 71 99 100 99 98 87 40 34 33 33 33 36 38
94 94 89 83 78 78 78 74 82 95 98 98 99 79 50 38 33 26 24 24 24 24 24 26 26 31 44 68 82 74 66 44 30 34 35 27 34 41
100 100 100 97 96 93 94 85 88 94 99 98 100 96 66 39 37 31 23 24 25 26 26 30 29 28 30 31 36 36 36 29 31 34 37 35 34 37
99 100 100 100 100 100 100 99 91 99 100 100 100 99 66 52 51 37 28 24 23 28 29 35 33 34 39 35 33 30 27 26 36 39 37 35 29 33
99 99 99 99 99 99 99 100 100 100 99 98 99 100 98 64 61 47 35 29 26 30 32 30 31 35 39 48 54 46 44 42 36 33 34 35 32 34
99 99 99 99 99 99 99 99 100 100 100 100 98 100 99 72 65 57 45 37 34 30 28 28 35 55 53 56 45 33 41 42 40 30 29 32 33 34
98 98 99 99 99 99 99 99 100 100 100 100 99 99 100 100 94 81 62 44 44 44 38 37 47 52 46 44 38 37 38 40 38 33 30 32 36 41
98 98 98 98 98 99 99 98 99 99 99 100 99 99 99 96 97 96 94 78 61 57 54 47 50 44 39 43 45 34 37 35 38 36 33 30 31 35

GFSNE_850_rhum_126.txt.gz
RH
93 77 70 78 91 95 98 98 92 78 75 69 63 64 68 66 60 54 49 48 57 60 60 91 93 100 99 97 90 84 77 80 71 66 61 58 62 57
88 73 77 95 97 87 99 100 88 75 72 54 59 72 63 54 48 46 47 50 53 65 77 84 100 94 95 97 89 73 73 83 76 62 56 58 62 62
75 78 90 100 78 70 76 84 66 66 43 50 63 64 57 50 49 52 51 49 49 60 71 74 87 91 97 91 76 78 85 89 75 67 86 81 69 68
78 76 99 93 70 73 71 76 60 43 48 56 58 52 50 52 54 51 53 51 49 51 76 84 85 90 84 81 88 90 91 90 78 74 98 88 93 98
86 90 96 91 71 74 63 65 49 47 49 50 50 54 54 54 50 50 48 48 51 59 67 96 92 88 90 93 99 90 96 89 75 72 79 91 100 100
85 84 82 79 75 70 74 56 48 47 50 51 54 56 55 51 52 52 51 52 54 65 80 94 89 87 84 93 99 96 92 87 78 71 67 72 95 100
93 89 93 95 87 75 64 51 50 50 53 54 55 54 54 55 55 56 56 57 60 67 83 87 89 88 94 94 90 89 98 91 88 85 76 70 97 99
100 98 94 97 99 77 53 56 57 56 58 60 60 57 58 58 60 60 61 65 64 72 89 93 97 93 96 100 100 100 100 97 90 90 87 92 100 99
100 98 94 99 80 52 54 56 57 59 61 61 61 61 63 64 68 68 70 71 72 78 88 83 88 93 98 99 99 98 100 98 97 92 88 86 100 100
100 100 95 81 56 55 56 57 61 62 61 61 64 67 70 73 74 76 80 77 77 78 88 94 83 88 100 100 100 100 99 98 98 98 92 88 100 100
98 90 70 60 61 62 61 62 62 61 60 64 71 72 74 75 76 80 78 79 78 78 89 100 94 96 98 100 99 99 99 100 98 99 95 94 98 100
75 69 71 66 65 69 67 61 60 56 57 61 62 71 77 78 81 81 79 78 83 96 95 100 100 100 99 98 98 99 100 100 99 99 97 94 91 88
84 82 85 81 73 67 63 62 60 61 62 63 69 75 79 83 84 84 83 81 80 87 97 98 98 98 100 99 98 94 92 85 83 80 95 93 83 64
81 81 78 75 70 66 64 65 64 64 63 67 72 78 79 82 83 82 80 79 78 77 71 77 99 100 100 99 100 99 99 92 74 82 84 89 76 63
96 95 92 86 77 72 71 73 72 70 70 70 77 82 80 81 81 74 65 52 44 41 43 47 50 73 98 99 100 100 99 95 69 72 53 61 67 46
92 93 94 92 87 83 82 79 77 75 72 74 78 88 83 68 59 55 48 37 32 28 25 26 28 35 40 84 99 100 100 98 57 39 47 39 44 36
100 100 100 100 99 95 92 91 89 87 80 82 86 92 91 77 56 44 39 26 23 24 26 25 25 26 31 40 50 55 76 84 82 50 31 36 33 33
100 100 100 100 100 100 100 100 100 100 95 93 90 96 99 92 67 40 37 34 27 24 27 29 30 31 28 28 26 28 38 42 52 44 35 38 33 30
99 98 99 99 99 99 100 99 99 99 100 99 98 100 100 99 78 51 43 42 30 26 32 32 30 34 37 30 31 32 29 28 33 38 39 40 35 40
99 99 99 99 99 99 99 99 99 99 99 98 98 98 99 100 92 61 57 47 40 31 31 32 30 33 38 44 46 43 40 40 37 32 41 48 46 41
100 100 99 99 98 99 98 98 99 98 98 98 98 98 98 99 100 89 67 58 49 40 32 34 41 55 47 43 46 27 38 44 46 44 38 38 39 38
98 98 99 99 99 99 99 99 98 99 99 97 97 98 98 98 97 95 76 73 63 48 42 52 55 57 47 40 34 32 37 45 46 44 39 36 36 41
97 97 97 99 98 98 98 98 99 98 98 98 98 98 98 97 97 98 98 98 96 79 64 58 56 52 40 36 36 36 34 37 38 41 39 38 34 39

GFSNE_850_rhum_132.txt.gz
RH
87 83 72 66 88 89 82 84 71 77 74 67 63 56 58 64 51 53 50 47 44 43 46 47 50 48 68 98 99 98 100 94 83 80 69 70 63 54
81 88 73 65 81 86 84 80 77 78 84 68 65 55 59 52 52 54 51 48 44 45 46 46 49 56 71 79 100 96 91 91 83 73 72 70 57 47
80 87 71 70 84 80 79 71 77 75 71 74 58 58 63 46 45 50 51 45 45 44 45 46 46 56 74 75 86 98 98 94 80 75 79 64 57 67
77 81 70 82 92 80 81 72 76 72 81 66 60 53 49 46 39 47 49 49 47 45 45 44 44 47 57 76 91 100 97 92 85 81 78 66 77 81
74 76 66 76 92 68 79 75 78 81 82 92 89 62 51 45 42 42 52 52 50 48 47 47 50 54 63 75 91 99 99 96 93 88 77 74 98 94
62 63 62 64 65 68 74 72 76 83 79 97 89 61 54 48 50 50 52 55 52 51 50 50 52 62 74 90 93 92 86 91 96 85 77 68 68 76
61 61 61 69 67 58 67 77 76 82 82 91 88 64 62 52 50 49 54 54 56 55 55 53 58 66 86 91 92 91 90 99 92 88 88 76 70 66
73 73 71 73 70 70 85 85 79 85 82 88 91 82 64 65 51 53 58 59 61 57 58 60 62 69 83 94 99 100 99 100 88 86 86 87 76 68
88 90 88 86 78 75 83 91 95 100 100 97 98 84 77 69 59 62 65 63 62 65 63 63 63 67 81 93 100 99 99 98 97 98 98 92 85 73
100 99 98 99 99 99 96 98 100 100 100 100 98 99 94 83 75 76 78 76 70 69 68 68 65 70 76 84 89 100 99 100 100 100 99 94 92 85
100 99 100 100 100 100 99 100 100 100 99 95 100 94 90 88 86 79 81 79 73 71 73 72 68 72 78 81 86 94 100 100 100 100 99 99 98 91
92 94 92 96 100 100 100 100 100 100 100 100 98 98 95 87 92 86 82 85 84 84 76 78 70 74 77 81 89 93 98 100 100 100 100 99 99 96
99 99 100 98 86 83 87 88 94 97 95 99 100 98 94 94 88 83 84 87 84 84 82 81 77 86 89 97 100 100 100 100 100 100 100 100 99 96
98 99 100 100 100 100 100 99 98 94 96 98 99 98 100 98 95 89 88 91 90 85 90 92 94 88 98 96 100 96 98 99 99 100 98 92 87 84
93 98 99 99 100 100 100 100 100 99 100 100 97 91 93 99 100 99 91 90 89 88 87 85 82 81 80 88 97 99 100 98 100 99 98 94 77 83
99 100 99 99 100 100 100 100 100 100 100 100 100 100 100 100 99 99 98 95 91 84 74 66 60 53 50 47 48 58 79 100 99 98 98 95 73 80
98 98 99 99 100 100 100 100 100 99 100 100 100 99 99 98 98 98 97 96 75 61 51 45 39 35 31 29 27 27 30 48 92 99 93 74 53 52
98 99 99 100 100 100 100 100 100 100 99 99 99 99 99 99 99 99 99 97 85 59 50 40 32 30 27 28 26 23 20 23 36 72 77 97 93 74
98 99 99 100 100 99 99 100 100 99 99 99 99 99 99 99 98 98 98 98 98 92 51 42 38 33 30 27 22 22 20 24 27 38 54 74 63 59
89 96 99 99 99 98 99 100 100 100 100 100 99 98 98 98 99 98 97 97 97 97 73 47 42 31 26 31 30 27 26 30 32 36 34 36 38 43
54 74 87 95 96 97 97 95 96 100 100 100 100 100 98 98 98 98 98 98 98 97 95 68 45 40 44 34 35 29 34 40 46 50 48 40 34 35
66 61 50 56 82 94 95 97 97 96 96 98 99 100 99 98 98 98 98 98 97 96 96 96 74 50 40 32 31 36 41 51 40 38 44 50 42 39
64 71 78 73 61 66 92 97 94 94 96 98 98 97 98 97 98 98 98 98 97 97 97 96 94 75 51 45 46 44 42 42 46 43 42 46 45 45

GFSNE_850_rhum_135.txt.gz
RH
60 72 69 64 72 78 78 81 87 82 75 69 66 70 68 54 50 49 42 40 42 42 41 40 38 40 44 51 55 72 99 95 98 94 79 74 64 64
67 79 72 70 64 82 77 74 88 88 87 70 66 67 61 55 56 56 45 44 43 40 39 38 40 40 43 52 65 68 75 96 93 92 82 72 61 60
89 82 70 69 65 77 80 74 89 82 76 64 69 69 68 64 59 58 50 49 50 43 40 41 39 41 44 51 69 70 76 89 98 94 82 70 64 57
89 73 63 75 67 71 81 70 74 71 73 74 76 74 67 75 68 60 59 48 49 48 42 41 42 41 44 46 50 61 81 98 94 94 81 76 65 82
76 64 61 65 64 62 70 68 69 67 72 74 75 82 79 85 74 67 64 60 53 55 41 44 44 47 48 53 53 80 92 96 99 91 83 79 85 90
79 77 57 62 62 64 63 67 60 66 70 80 82 88 84 98 85 70 66 61 64 54 49 47 47 48 49 54 67 77 100 98 90 85 87 74 78 91
84 96 89 84 80 80 74 69 68 72 74 78 74 83 91 98 83 75 71 80 68 58 54 51 51 52 52 56 68 87 89 90 87 83 89 82 71 65
98 87 84 86 87 80 80 80 78 78 80 80 80 78 78 88 92 86 80 88 74 61 58 56 55 54 53 55 64 80 89 94 89 92 84 84 88 77
91 88 90 86 86 96 93 96 96 91 88 89 100 99 98 96 98 92 94 86 76 68 65 62 60 60 59 58 66 87 100 100 100 100 90 88 92 83
99 97 98 98 99 100 100 97 100 100 100 100 99 96 100 100 100 99 95 92 80 73 71 71 67 65 63 64 73 96 100 100 100 99 97 97 96 90
94 98 91 84 89 85 84 96 95 97 100 100 100 100 100 100 100 100 98 99 92 81 73 77 74 71 69 71 78 90 100 99 100 100 100 99 99 95
100 100 98 99 98 100 98 86 83 83 91 95 97 97 95 98 100 100 100 96 96 88 76 83 80 81 81 74 76 84 96 100 100 99 100 100 100 99
97 99 100 99 99 100 100 100 100 100 98 97 93 86 93 92 95 99 99 99 97 91 88 86 81 81 83 86 86 90 98 100 99 99 100 100 100 100
85 90 96 99 99 99 99 100 100 100 100 100 100 100 100 98 99 98 98 99 100 98 96 97 96 87 88 93 96 96 99 99 99 99 100 100 99 100
86 88 92 93 94 100 100 100 100 99 100 100 100 100 100 100 100 100 99 100 100 100 100 99 100 100 100 99 94 96 100 99 100 99 99 100 100 96
93 94 94 98 99 98 98 100 100 100 100 100 100 100 100 100 100 100 100 100 100 99 99 100 99 95 94 87 86 88 91 99 99 99 98 98 97 94
93 96 97 98 98 98 98 99 99 99 99 99 99 99 99 100 100 100 99 100 99 99 99 98 97 93 74 67 60 54 52 58 86 100 100 99 98 96
97 96 94 95 96 98 99 99 99 99 99 99 99 99 99 99 99 99 99 99 99 99 98 98 96 64 50 46 41 36 32 30 36 72 100 98 92 81
73 95 90 86 92 97 98 98 98 98 98 99 100 100 99 98 99 99 99 98 98 98 98 97 96 96 80 44 38 33 32 28 30 35 44 67 71 61
49 48 49 61 80 88 98 98 90 93 97 98 99 99 99 98 98 100 99 99 98 97 97 97 96 95 95 74 46 38 32 27 32 30 33 33 43 56
34 47 62 63 54 64 89 93 99 100 100 99 97 97 97 98 97 98 98 96 98 98 97 97 95 97 96 89 62 46 40 36 36 41 43 41 39 36
44 49 56 65 73 74 66 63 90 97 100 100 98 97 97 97 97 98 98 97 97 97 97 97 97 97 96 95 83 50 55 54 50 52 53 56 54 45
52 54 58 61 63 71 80 77 70 85 100 100 99 98 99 98 97 97 98 97 97 97 98 97 97 96 96 95 95 74 65 52 49 49 44 45 48 59

GFSNE_850_rhum_138.txt.gz
RH
87 99 79 55 51 88 77 88 84 85 86 72 70 68 67 66 70 72 56 55 53 46 46 48 43 39 40 40 42 48 52 56 64 81 72 83 84 70
85 99 96 69 58 66 74 86 76 80 87 83 76 67 76 76 74 74 63 58 57 50 44 45 45 41 40 42 41 40 48 52 58 71 84 77 76 68
98 92 99 88 72 75 92 74 75 80 85 79 74 68 70 72 81 77 71 61 62 60 56 51 50 44 41 39 38 43 49 51 57 78 77 73 76 63
100 100 100 97 76 69 68 82 78 74 70 74 73 65 68 73 74 74 71 68 71 60 60 62 55 50 45 42 40 40 44 49 58 74 82 87 78 65
99 96 100 98 99 68 81 88 68 68 72 79 84 73 74 77 83 83 73 71 85 74 76 63 61 54 49 45 44 43 44 44 50 58 82 90 78 72
100 99 96 96 100 100 95 69 79 93 86 78 83 84 78 85 96 95 92 82 83 84 82 76 62 55 54 50 47 47 47 48 52 75 95 86 83 78
88 100 100 100 95 92 79 68 78 90 100 98 92 96 83 87 93 89 97 90 87 89 85 84 72 58 57 54 52 51 51 60 85 94 91 84 88 76
100 100 100 100 99 95 98 100 93 100 92 94 86 100 92 95 92 91 94 97 97 94 93 89 81 71 62 56 54 54 60 68 80 91 86 83 90 82
84 84 83 81 83 97 97 93 91 87 98 99 95 98 95 96 89 88 96 100 99 93 100 95 86 78 64 60 56 57 63 81 92 91 90 88 88 85
80 87 98 96 100 100 94 88 89 85 97 97 99 99 98 100 100 100 100 100 100 99 100 96 84 76 68 64 61 61 62 72 98 96 92 91 90 86
100 100 100 100 98 95 94 90 89 82 84 85 85 86 92 92 87 87 97 100 100 100 100 97 92 87 76 68 65 72 77 84 98 100 96 91 92 92
98 98 98 98 98 98 98 99 99 99 92 90 88 90 92 92 88 91 85 90 97 98 98 100 100 98 88 74 75 76 79 85 99 100 100 100 100 99
86 89 91 94 94 95 98 99 98 99 99 100 100 100 100 100 100 99 100 96 91 96 98 100 100 100 99 84 82 80 82 89 98 99 100 100 100 99
80 82 85 88 90 93 97 99 100 100 100 99 100 100 100 100 100 100 100 100 100 100 100 100 100 100 98 93 93 85 87 94 99 99 99 100 100 100
76 84 85 85 86 90 95 100 100 99 100 100 100 100 100 100 100 100 100 100 100 99 100 100 100 100 100 99 98 96 97 97 98 99 100 99 98 100
60 66 72 73 82 92 96 99 100 100 99 99 99 99 99 99 100 100 99 99 99 100 100 99 99 99 99 99 100 100 100 99 97 99 99 98 100 100
52 60 71 61 64 74 89 96 98 99 100 100 100 99 99 98 98 99 99 99 99 99 99 99 98 98 99 99 99 100 100 100 100 100 100 100 100 99
47 53 74 76 75 69 80 86 88 95 97 97 99 99 100 98 98 98 98 98 98 98 98 98 98 98 97 97 97 97 94 71 63 62 71 96 99 99
32 40 50 52 53 59 68 72 86 92 87 93 97 97 97 97 98 97 97 98 98 98 97 98 98 97 97 97 97 96 78 48 42 36 34 49 72 90
35 34 34 42 60 67 60 63 73 84 98 100 100 100 99 97 97 96 97 97 97 97 97 97 97 97 97 97 97 97 97 94 46 35 38 37 39 48
42 44 46 46 47 52 61 68 75 77 98 100 100 100 100 100 97 97 97 98 98 97 97 95 95 98 98 98 97 96 96 90 44 39 37 46 45 38
51 52 52 52 53 54 56 60 67 80 87 100 100 100 100 100 99 98 98 97 97 98 96 97 96 97 97 95 94 96 96 96 82 50 41 47 64 55
58 58 57 55 56 57 57 58 61 69 81 87 98 100 99 98 100 98 98 97 97 97 98 97 97 97 98 97 96 96 96 95 93 79 63 56 63 71